Wetterdaten: aktuell Donnerstag, 07.05.2026 10:04
Datum Zeit Temp 1 Temp 2 Feuchte 1 Feuchte 2 Luftdruck Regen Wind Richtung Richtung Sonnenschein Taupunkt Windchill Windböen
07.05.2026 10:04 12,8 °C 10,3 °C 83 % 92 % 1011,9 hPa 0,0 l/m² 0,8 km/h (0 Bft) N-NO 22 ° 2 min 10,0 °C 12,8 °C 3,1 km/h (1 Bft)
07.05.2026 10:02 12,9 °C 10,3 °C 83 % 92 % 1011,9 hPa 0,0 l/m² 0,6 km/h (0 Bft) SW 225 ° 2 min 10,1 °C 12,9 °C 0,0 km/h (0 Bft)
07.05.2026 10:00 12,8 °C 10,3 °C 83 % 92 % 1011,9 hPa 0,0 l/m² 0,6 km/h (0 Bft) N 360 ° 2 min 10,0 °C 12,8 °C 0,0 km/h (0 Bft)
07.05.2026 09:58 12,8 °C 10,3 °C 84 % 93 % 1011,9 hPa 0,0 l/m² 0,8 km/h (0 Bft) NW 315 ° 2 min 10,2 °C 12,8 °C 1,6 km/h (1 Bft)
07.05.2026 09:56 12,7 °C 10,3 °C 84 % 93 % 1011,9 hPa 0,0 l/m² 0,8 km/h (0 Bft) O-NO 67 ° 2 min 10,1 °C 12,7 °C 0,0 km/h (0 Bft)
07.05.2026 09:54 12,7 °C 10,3 °C 84 % 93 % 1011,9 hPa 0,0 l/m² 1,0 km/h (0 Bft) W 270 ° 2 min 10,1 °C 12,7 °C 1,8 km/h (1 Bft)
07.05.2026 09:52 12,6 °C 10,2 °C 84 % 93 % 1011,9 hPa 0,0 l/m² 0,8 km/h (0 Bft) W-SW 247 ° 2 min 10,0 °C 12,6 °C 1,9 km/h (1 Bft)
07.05.2026 09:50 12,5 °C 10,1 °C 84 % 93 % 1011,9 hPa 0,0 l/m² 0,6 km/h (0 Bft) W-SW 247 ° 2 min 9,9 °C 12,5 °C 0,0 km/h (0 Bft)
07.05.2026 09:48 12,3 °C 10,1 °C 84 % 93 % 1011,9 hPa 0,0 l/m² 0,3 km/h (0 Bft) W-SW 247 ° 2 min 9,7 °C 12,3 °C 4,3 km/h (1 Bft)
07.05.2026 09:46 12,3 °C 10,1 °C 84 % 93 % 1011,9 hPa 0,0 l/m² 0,2 km/h (0 Bft) N-NW 337 ° 2 min 9,7 °C 12,3 °C 0,0 km/h (0 Bft)
07.05.2026 09:44 12,3 °C 10,0 °C 84 % 93 % 1011,9 hPa 0,0 l/m² 0,3 km/h (0 Bft) N 360 ° 2 min 9,7 °C 12,3 °C 0,0 km/h (0 Bft)
07.05.2026 09:42 12,3 °C 9,9 °C 84 % 93 % 1011,9 hPa 0,0 l/m² 0,5 km/h (0 Bft) O 90 ° 2 min 9,7 °C 12,3 °C 0,0 km/h (0 Bft)
07.05.2026 09:40 12,1 °C 9,9 °C 84 % 93 % 1011,9 hPa 0,0 l/m² 0,5 km/h (0 Bft) W-NW 292 ° 2 min 9,5 °C 12,1 °C 0,0 km/h (0 Bft)
07.05.2026 09:38 11,9 °C 9,9 °C 84 % 93 % 1011,9 hPa 0,0 l/m² 0,5 km/h (0 Bft) SW 225 ° 2 min 9,3 °C 11,9 °C 0,0 km/h (0 Bft)
07.05.2026 09:36 11,9 °C 9,8 °C 84 % 93 % 1011,9 hPa 0,0 l/m² 0,6 km/h (0 Bft) W-SW 247 ° 2 min 9,3 °C 11,9 °C 0,0 km/h (0 Bft)
07.05.2026 09:34 11,8 °C 9,7 °C 84 % 93 % 1011,9 hPa 0,0 l/m² 1,0 km/h (0 Bft) SW 225 ° 2 min 9,2 °C 11,8 °C 3,2 km/h (1 Bft)
07.05.2026 09:32 11,8 °C 9,8 °C 84 % 93 % 1011,9 hPa 0,0 l/m² 1,1 km/h (1 Bft) NW 315 ° 2 min 9,2 °C 11,8 °C 0,0 km/h (0 Bft)
07.05.2026 09:30 11,8 °C 9,7 °C 84 % 93 % 1011,8 hPa 0,0 l/m² 1,4 km/h (1 Bft) W-SW 247 ° 2 min 9,2 °C 11,8 °C 2,1 km/h (1 Bft)
07.05.2026 09:28 11,7 °C 9,7 °C 83 % 93 % 1011,8 hPa 0,0 l/m² 1,8 km/h (1 Bft) W 270 ° 2 min 8,9 °C 11,7 °C 0,0 km/h (0 Bft)
07.05.2026 09:26 11,6 °C 9,7 °C 83 % 93 % 1011,8 hPa 0,0 l/m² 1,9 km/h (1 Bft) W-SW 247 ° 2 min 8,8 °C 11,6 °C 0,0 km/h (0 Bft)
07.05.2026 09:24 11,5 °C 9,6 °C 82 % 93 % 1011,8 hPa 0,0 l/m² 1,9 km/h (1 Bft) W-SW 247 ° 0 min 8,5 °C 11,5 °C 3,9 km/h (1 Bft)
07.05.2026 09:22 11,5 °C 9,6 °C 82 % 93 % 1011,8 hPa 0,0 l/m² 1,4 km/h (1 Bft) SW 225 ° 0 min 8,5 °C 11,5 °C 3,1 km/h (1 Bft)
07.05.2026 09:20 11,5 °C 9,6 °C 82 % 93 % 1011,8 hPa 0,0 l/m² 1,3 km/h (1 Bft) W-SW 247 ° 2 min 8,5 °C 11,5 °C 0,0 km/h (0 Bft)
07.05.2026 09:18 11,3 °C 9,5 °C 82 % 93 % 1011,8 hPa 0,0 l/m² 1,6 km/h (1 Bft) W 270 ° 2 min 8,3 °C 11,3 °C 3,2 km/h (1 Bft)
07.05.2026 09:16 11,2 °C 9,5 °C 82 % 93 % 1011,8 hPa 0,0 l/m² 2,1 km/h (1 Bft) S 180 ° 2 min 8,2 °C 11,2 °C 3,9 km/h (1 Bft)
07.05.2026 09:14 11,1 °C 9,4 °C 82 % 93 % 1011,8 hPa 0,0 l/m² 1,8 km/h (1 Bft) O-NO 67 ° 2 min 8,1 °C 11,1 °C 0,0 km/h (0 Bft)
07.05.2026 09:12 11,0 °C 9,4 °C 81 % 93 % 1011,8 hPa 0,0 l/m² 1,6 km/h (1 Bft) W-SW 247 ° 2 min 7,9 °C 11,0 °C 4,7 km/h (1 Bft)
07.05.2026 09:10 11,0 °C 9,3 °C 81 % 93 % 1011,4 hPa 0,0 l/m² 1,6 km/h (1 Bft) W 270 ° 2 min 7,9 °C 11,0 °C 0,0 km/h (0 Bft)
07.05.2026 09:08 11,0 °C 9,3 °C 81 % 93 % 1011,4 hPa 0,0 l/m² 1,4 km/h (1 Bft) W-SW 247 ° 2 min 7,9 °C 11,0 °C 5,8 km/h (2 Bft)
07.05.2026 09:06 10,9 °C 9,2 °C 81 % 93 % 1011,4 hPa 0,0 l/m² 1,3 km/h (1 Bft) W-NW 292 ° 2 min 7,8 °C 10,9 °C 3,9 km/h (1 Bft)
07.05.2026 09:04 10,8 °C 9,2 °C 81 % 93 % 1011,4 hPa 0,0 l/m² 1,3 km/h (1 Bft) N-NW 337 ° 2 min 7,7 °C 10,8 °C 0,0 km/h (0 Bft)
07.05.2026 09:02 10,8 °C 9,1 °C 81 % 93 % 1011,4 hPa 0,0 l/m² 1,3 km/h (1 Bft) NO 45 ° 2 min 7,7 °C 10,8 °C 0,0 km/h (0 Bft)
07.05.2026 09:00 10,7 °C 9,1 °C 81 % 93 % 1011,4 hPa 0,0 l/m² 1,8 km/h (1 Bft) W 270 ° 2 min 7,6 °C 10,7 °C 0,0 km/h (0 Bft)
07.05.2026 08:58 10,7 °C 9,1 °C 81 % 93 % 1011,4 hPa 0,0 l/m² 1,6 km/h (1 Bft) W-SW 247 ° 2 min 7,6 °C 10,7 °C 3,2 km/h (1 Bft)
07.05.2026 08:56 10,7 °C 9,1 °C 81 % 93 % 1011,4 hPa 0,0 l/m² 1,4 km/h (1 Bft) N-NW 337 ° 0 min 7,6 °C 10,7 °C 4,8 km/h (1 Bft)
07.05.2026 08:54 10,6 °C 9,0 °C 81 % 94 % 1011,4 hPa 0,0 l/m² 1,1 km/h (1 Bft) W 270 ° 2 min 7,5 °C 10,6 °C 0,0 km/h (0 Bft)
07.05.2026 08:52 10,6 °C 9,0 °C 81 % 94 % 1011,4 hPa 0,0 l/m² 1,4 km/h (1 Bft) SO 135 ° 2 min 7,5 °C 10,6 °C 0,0 km/h (0 Bft)
07.05.2026 08:50 10,4 °C 9,0 °C 81 % 94 % 1011,2 hPa 0,0 l/m² 1,8 km/h (1 Bft) NW 315 ° 0 min 7,3 °C 10,4 °C 3,7 km/h (1 Bft)
07.05.2026 08:48 10,4 °C 8,9 °C 81 % 94 % 1011,2 hPa 0,0 l/m² 1,6 km/h (1 Bft) N-NW 337 ° 0 min 7,3 °C 10,4 °C 0,0 km/h (0 Bft)
07.05.2026 08:46 10,3 °C 8,8 °C 81 % 94 % 1011,2 hPa 0,0 l/m² 1,6 km/h (1 Bft) SW 225 ° 0 min 7,2 °C 10,3 °C 2,6 km/h (1 Bft)
07.05.2026 08:44 10,3 °C 8,8 °C 82 % 94 % 1011,2 hPa 0,0 l/m² 1,6 km/h (1 Bft) W-SW 247 ° 2 min 7,4 °C 10,3 °C 3,5 km/h (1 Bft)
07.05.2026 08:42 10,1 °C 8,7 °C 82 % 94 % 1011,2 hPa 0,0 l/m² 1,0 km/h (0 Bft) NW 315 ° 2 min 7,2 °C 10,1 °C 0,0 km/h (0 Bft)
07.05.2026 08:40 10,0 °C 8,7 °C 82 % 94 % 1011,2 hPa 0,0 l/m² 0,8 km/h (0 Bft) W 270 ° 2 min 7,1 °C 10,0 °C 5,5 km/h (2 Bft)
07.05.2026 08:38 9,9 °C 8,6 °C 82 % 94 % 1011,2 hPa 0,0 l/m² 0,2 km/h (0 Bft) W 270 ° 2 min 7,0 °C 9,9 °C 2,1 km/h (1 Bft)
07.05.2026 08:36 9,7 °C 8,5 °C 82 % 94 % 1011,2 hPa 0,0 l/m² 0,2 km/h (0 Bft) NW 315 ° 2 min 6,8 °C 9,7 °C 0,0 km/h (0 Bft)
07.05.2026 08:34 9,7 °C 8,4 °C 82 % 94 % 1011,2 hPa 0,0 l/m² 0,2 km/h (0 Bft) O-NO 67 ° 2 min 6,8 °C 9,7 °C 1,6 km/h (1 Bft)
07.05.2026 08:32 9,6 °C 8,4 °C 82 % 94 % 1011,2 hPa 0,0 l/m² 0,0 km/h (0 Bft) O-NO 67 ° 2 min 6,7 °C 9,6 °C 1,9 km/h (1 Bft)
07.05.2026 08:30 9,5 °C 8,4 °C 82 % 94 % 1011,2 hPa 0,0 l/m² 0,5 km/h (0 Bft) NW 315 ° 2 min 6,6 °C 9,5 °C 0,0 km/h (0 Bft)
07.05.2026 08:28 9,5 °C 8,3 °C 82 % 94 % 1011,2 hPa 0,0 l/m² 0,6 km/h (0 Bft) N-NW 337 ° 2 min 6,6 °C 9,5 °C 0,0 km/h (0 Bft)
07.05.2026 08:26 9,3 °C 8,3 °C 81 % 94 % 1011,2 hPa 0,0 l/m² 0,8 km/h (0 Bft) W-NW 292 ° 2 min 6,2 °C 9,3 °C 0,0 km/h (0 Bft)
07.05.2026 08:24 9,3 °C 8,3 °C 81 % 94 % 1011,2 hPa 0,0 l/m² 1,1 km/h (1 Bft) NW 315 ° 0 min 6,2 °C 9,3 °C 0,0 km/h (0 Bft)
07.05.2026 08:22 9,3 °C 8,3 °C 81 % 94 % 1011,2 hPa 0,0 l/m² 1,1 km/h (1 Bft) NW 315 ° 0 min 6,2 °C 9,3 °C 0,0 km/h (0 Bft)
07.05.2026 08:20 9,3 °C 8,3 °C 81 % 94 % 1011,2 hPa 0,0 l/m² 1,0 km/h (0 Bft) W 270 ° 0 min 6,2 °C 9,3 °C 3,9 km/h (1 Bft)
07.05.2026 08:18 9,2 °C 8,2 °C 81 % 93 % 1011,2 hPa 0,0 l/m² 0,6 km/h (0 Bft) W 270 ° 0 min 6,1 °C 9,2 °C 4,3 km/h (1 Bft)
07.05.2026 08:16 9,1 °C 8,2 °C 81 % 93 % 1011,2 hPa 0,0 l/m² 0,8 km/h (0 Bft) W 270 ° 0 min 6,0 °C 9,1 °C 0,0 km/h (0 Bft)
07.05.2026 08:14 9,0 °C 8,2 °C 81 % 93 % 1011,2 hPa 0,0 l/m² 0,5 km/h (0 Bft) W 270 ° 0 min 5,9 °C 9,0 °C 0,0 km/h (0 Bft)
07.05.2026 08:12 8,9 °C 8,2 °C 81 % 93 % 1011,2 hPa 0,0 l/m² 0,5 km/h (0 Bft) W 270 ° 0 min 5,8 °C 8,9 °C 0,0 km/h (0 Bft)
07.05.2026 08:10 8,9 °C 8,2 °C 82 % 93 % 1010,9 hPa 0,0 l/m² 0,8 km/h (0 Bft) N-NW 337 ° 0 min 6,0 °C 8,9 °C 0,0 km/h (0 Bft)
07.05.2026 08:08 8,9 °C 8,1 °C 82 % 93 % 1010,9 hPa 0,0 l/m² 1,1 km/h (1 Bft) N-NW 337 ° 0 min 6,0 °C 8,9 °C 0,0 km/h (0 Bft)
07.05.2026 08:06 8,8 °C 8,1 °C 82 % 93 % 1010,9 hPa 0,0 l/m² 1,6 km/h (1 Bft) W 270 ° 0 min 5,9 °C 8,8 °C 2,9 km/h (1 Bft)
07.05.2026 08:04 8,7 °C 8,1 °C 82 % 93 % 1010,9 hPa 0,0 l/m² 1,1 km/h (1 Bft) NW 315 ° 0 min 5,8 °C 8,7 °C 0,0 km/h (0 Bft)
07.05.2026 08:02 8,7 °C 8,1 °C 82 % 93 % 1010,9 hPa 0,0 l/m² 1,1 km/h (1 Bft) NW 315 ° 0 min 5,8 °C 8,7 °C 0,0 km/h (0 Bft)
07.05.2026 08:00 8,7 °C 8,1 °C 82 % 93 % 1010,9 hPa 0,0 l/m² 1,1 km/h (1 Bft) NW 315 ° 0 min 5,8 °C 8,7 °C 2,1 km/h (1 Bft)
07.05.2026 07:58 8,7 °C 8,1 °C 82 % 93 % 1010,9 hPa 0,0 l/m² 1,0 km/h (0 Bft) W 270 ° 0 min 5,8 °C 8,7 °C 7,4 km/h (2 Bft)
07.05.2026 07:56 8,6 °C 8,0 °C 82 % 93 % 1010,9 hPa 0,0 l/m² 0,6 km/h (0 Bft) O-SO 112 ° 0 min 5,7 °C 8,6 °C 7,4 km/h (2 Bft)
07.05.2026 07:54 8,6 °C 8,0 °C 82 % 93 % 1010,9 hPa 0,0 l/m² 0,5 km/h (0 Bft) NW 315 ° 0 min 5,7 °C 8,6 °C 0,0 km/h (0 Bft)
07.05.2026 07:52 8,6 °C 8,0 °C 82 % 93 % 1010,9 hPa 0,0 l/m² 0,6 km/h (0 Bft) N-NW 337 ° 0 min 5,7 °C 8,6 °C 0,0 km/h (0 Bft)
07.05.2026 07:50 8,6 °C 8,0 °C 82 % 93 % 1010,8 hPa 0,0 l/m² 0,8 km/h (0 Bft) SW 225 ° 0 min 5,7 °C 8,6 °C 0,0 km/h (0 Bft)
07.05.2026 07:48 8,5 °C 8,0 °C 82 % 93 % 1010,8 hPa 0,0 l/m² 1,1 km/h (1 Bft) NW 315 ° 0 min 5,6 °C 8,5 °C 6,3 km/h (2 Bft)
07.05.2026 07:46 8,4 °C 8,0 °C 82 % 93 % 1010,8 hPa 0,0 l/m² 0,8 km/h (0 Bft) W-SW 247 ° 0 min 5,5 °C 8,4 °C 2,3 km/h (1 Bft)
07.05.2026 07:44 8,3 °C 8,0 °C 82 % 93 % 1010,8 hPa 0,0 l/m² 1,0 km/h (0 Bft) W 270 ° 0 min 5,4 °C 8,3 °C 0,0 km/h (0 Bft)
07.05.2026 07:42 8,3 °C 8,0 °C 82 % 93 % 1010,8 hPa 0,0 l/m² 1,3 km/h (1 Bft) W 270 ° 0 min 5,4 °C 8,3 °C 0,0 km/h (0 Bft)
07.05.2026 07:40 8,3 °C 7,9 °C 82 % 93 % 1010,8 hPa 0,0 l/m² 1,4 km/h (1 Bft) W 270 ° 0 min 5,4 °C 8,3 °C 2,3 km/h (1 Bft)
07.05.2026 07:38 8,3 °C 8,0 °C 82 % 93 % 1010,8 hPa 0,0 l/m² 1,1 km/h (1 Bft) W-SW 247 ° 0 min 5,4 °C 8,3 °C 1,8 km/h (1 Bft)
07.05.2026 07:36 8,3 °C 7,9 °C 82 % 93 % 1010,8 hPa 0,0 l/m² 1,1 km/h (1 Bft) N 360 ° 0 min 5,4 °C 8,3 °C 0,0 km/h (0 Bft)
07.05.2026 07:34 8,3 °C 7,9 °C 82 % 93 % 1010,8 hPa 0,0 l/m² 1,3 km/h (1 Bft) W-NW 292 ° 0 min 5,4 °C 8,3 °C 2,9 km/h (1 Bft)
07.05.2026 07:32 8,3 °C 7,9 °C 82 % 93 % 1010,8 hPa 0,0 l/m² 1,0 km/h (0 Bft) W 270 ° 0 min 5,4 °C 8,3 °C 3,7 km/h (1 Bft)
07.05.2026 07:30 8,3 °C 7,9 °C 82 % 93 % 1010,8 hPa 0,0 l/m² 0,8 km/h (0 Bft) W-NW 292 ° 0 min 5,4 °C 8,3 °C 2,6 km/h (1 Bft)
07.05.2026 07:28 8,3 °C 7,9 °C 82 % 93 % 1010,8 hPa 0,0 l/m² 0,6 km/h (0 Bft) N 360 ° 0 min 5,4 °C 8,3 °C 0,0 km/h (0 Bft)
07.05.2026 07:26 8,3 °C 7,9 °C 82 % 93 % 1010,8 hPa 0,0 l/m² 0,6 km/h (0 Bft) NW 315 ° 0 min 5,4 °C 8,3 °C 0,0 km/h (0 Bft)
07.05.2026 07:24 8,3 °C 7,9 °C 82 % 93 % 1010,8 hPa 0,0 l/m² 0,5 km/h (0 Bft) W 270 ° 0 min 5,4 °C 8,3 °C 2,4 km/h (1 Bft)
07.05.2026 07:22 8,3 °C 7,9 °C 82 % 93 % 1010,8 hPa 0,0 l/m² 0,3 km/h (0 Bft) NW 315 ° 0 min 5,4 °C 8,3 °C 2,1 km/h (1 Bft)
07.05.2026 07:20 8,3 °C 7,9 °C 82 % 93 % 1010,8 hPa 0,0 l/m² 0,2 km/h (0 Bft) W 270 ° 0 min 5,4 °C 8,3 °C 3,4 km/h (1 Bft)
07.05.2026 07:18 8,2 °C 7,8 °C 82 % 93 % 1010,8 hPa 0,0 l/m² 0,0 km/h (0 Bft) NW 315 ° 0 min 5,3 °C 8,2 °C 0,0 km/h (0 Bft)
07.05.2026 07:16 8,2 °C 7,8 °C 82 % 94 % 1010,8 hPa 0,0 l/m² 0,0 km/h (0 Bft) NW 315 ° 0 min 5,3 °C 8,2 °C 0,0 km/h (0 Bft)
07.05.2026 07:14 8,2 °C 7,8 °C 82 % 94 % 1010,8 hPa 0,0 l/m² 0,0 km/h (0 Bft) W 270 ° 0 min 5,3 °C 8,2 °C 0,0 km/h (0 Bft)
07.05.2026 07:12 8,2 °C 7,8 °C 82 % 94 % 1010,8 hPa 0,0 l/m² 0,0 km/h (0 Bft) W 270 ° 0 min 5,3 °C 8,2 °C 0,0 km/h (0 Bft)
07.05.2026 07:10 8,2 °C 7,8 °C 82 % 94 % 1010,6 hPa 0,0 l/m² 0,0 km/h (0 Bft) NW 315 ° 0 min 5,3 °C 8,2 °C 0,0 km/h (0 Bft)
07.05.2026 07:08 8,1 °C 7,8 °C 82 % 94 % 1010,6 hPa 0,0 l/m² 0,0 km/h (0 Bft) W-NW 292 ° 0 min 5,2 °C 8,1 °C 0,0 km/h (0 Bft)
07.05.2026 07:06 8,1 °C 7,8 °C 82 % 94 % 1010,6 hPa 0,0 l/m² 0,0 km/h (0 Bft) W 270 ° 0 min 5,2 °C 8,1 °C 0,0 km/h (0 Bft)
07.05.2026 07:04 8,1 °C 7,7 °C 82 % 94 % 1010,6 hPa 0,0 l/m² 0,0 km/h (0 Bft) W-NW 292 ° 0 min 5,2 °C 8,1 °C 0,0 km/h (0 Bft)
07.05.2026 07:02 8,0 °C 7,8 °C 82 % 94 % 1010,6 hPa 0,0 l/m² 0,0 km/h (0 Bft) NW 315 ° 0 min 5,1 °C 8,0 °C 0,0 km/h (0 Bft)
07.05.2026 07:00 7,9 °C 7,8 °C 82 % 94 % 1010,6 hPa 0,0 l/m² 0,0 km/h (0 Bft) W-NW 292 ° 0 min 5,0 °C 7,9 °C 0,0 km/h (0 Bft)
07.05.2026 06:58 7,9 °C 7,7 °C 82 % 94 % 1010,6 hPa 0,0 l/m² 0,0 km/h (0 Bft) W 270 ° 0 min 5,0 °C 7,9 °C 0,0 km/h (0 Bft)
07.05.2026 06:56 7,8 °C 7,7 °C 82 % 94 % 1010,6 hPa 0,0 l/m² 0,0 km/h (0 Bft) NW 315 ° 0 min 4,9 °C 7,8 °C 0,0 km/h (0 Bft)
07.05.2026 06:54 7,9 °C 7,7 °C 82 % 94 % 1010,6 hPa 0,0 l/m² 0,2 km/h (0 Bft) NW 315 ° 0 min 5,0 °C 7,9 °C 0,0 km/h (0 Bft)
07.05.2026 06:52 7,8 °C 7,7 °C 82 % 94 % 1010,6 hPa 0,0 l/m² 0,2 km/h (0 Bft) W 270 ° 0 min 4,9 °C 7,8 °C 0,0 km/h (0 Bft)
07.05.2026 06:50 7,8 °C 7,7 °C 82 % 94 % 1010,5 hPa 0,0 l/m² 0,2 km/h (0 Bft) W-NW 292 ° 0 min 4,9 °C 7,8 °C 0,0 km/h (0 Bft)
07.05.2026 06:48 7,7 °C 7,7 °C 82 % 94 % 1010,5 hPa 0,0 l/m² 0,2 km/h (0 Bft) W-SW 247 ° 0 min 4,8 °C 7,7 °C 0,0 km/h (0 Bft)
07.05.2026 06:46 7,7 °C 7,7 °C 82 % 94 % 1010,5 hPa 0,0 l/m² 0,5 km/h (0 Bft) W-NW 292 ° 0 min 4,8 °C 7,7 °C 0,0 km/h (0 Bft)
07.05.2026 06:44 7,7 °C 7,7 °C 82 % 94 % 1010,5 hPa 0,0 l/m² 0,6 km/h (0 Bft) SW 225 ° 0 min 4,8 °C 7,7 °C 0,0 km/h (0 Bft)
07.05.2026 06:42 7,7 °C 7,7 °C 82 % 94 % 1010,5 hPa 0,0 l/m² 0,5 km/h (0 Bft) W 270 ° 0 min 4,8 °C 7,7 °C 0,0 km/h (0 Bft)
07.05.2026 06:40 7,6 °C 7,7 °C 82 % 94 % 1010,5 hPa 0,0 l/m² 0,6 km/h (0 Bft) W 270 ° 0 min 4,7 °C 7,6 °C 0,0 km/h (0 Bft)
07.05.2026 06:38 7,6 °C 7,7 °C 82 % 94 % 1010,5 hPa 0,0 l/m² 0,6 km/h (0 Bft) W-NW 292 ° 0 min 4,7 °C 7,6 °C 2,9 km/h (1 Bft)
07.05.2026 06:36 7,7 °C 7,7 °C 82 % 94 % 1010,5 hPa 0,0 l/m² 0,5 km/h (0 Bft) W 270 ° 0 min 4,8 °C 7,7 °C 2,6 km/h (1 Bft)
07.05.2026 06:34 7,6 °C 7,7 °C 82 % 94 % 1010,5 hPa 0,0 l/m² 0,2 km/h (0 Bft) W 270 ° 0 min 4,7 °C 7,6 °C 0,0 km/h (0 Bft)
07.05.2026 06:32 7,6 °C 7,7 °C 82 % 94 % 1010,5 hPa 0,0 l/m² 0,2 km/h (0 Bft) W-NW 292 ° 0 min 4,7 °C 7,6 °C 0,0 km/h (0 Bft)
07.05.2026 06:30 7,7 °C 7,7 °C 82 % 94 % 1010,5 hPa 0,0 l/m² 0,2 km/h (0 Bft) W-NW 292 ° 0 min 4,8 °C 7,7 °C 2,1 km/h (1 Bft)
07.05.2026 06:28 7,6 °C 7,7 °C 82 % 94 % 1010,5 hPa 0,0 l/m² 0,0 km/h (0 Bft) W-NW 292 ° 0 min 4,7 °C 7,6 °C 0,0 km/h (0 Bft)
07.05.2026 06:26 7,6 °C 7,7 °C 82 % 94 % 1010,5 hPa 0,0 l/m² 0,0 km/h (0 Bft) W-SW 247 ° 0 min 4,7 °C 7,6 °C 0,0 km/h (0 Bft)
07.05.2026 06:24 7,6 °C 7,7 °C 82 % 94 % 1010,5 hPa 0,0 l/m² 0,0 km/h (0 Bft) W-NW 292 ° 0 min 4,7 °C 7,6 °C 0,0 km/h (0 Bft)
07.05.2026 06:22 7,6 °C 7,6 °C 82 % 94 % 1010,5 hPa 0,0 l/m² 0,0 km/h (0 Bft) W-NW 292 ° 0 min 4,7 °C 7,6 °C 0,0 km/h (0 Bft)
07.05.2026 06:20 7,6 °C 7,6 °C 82 % 94 % 1010,5 hPa 0,0 l/m² 0,0 km/h (0 Bft) W 270 ° 0 min 4,7 °C 7,6 °C 0,0 km/h (0 Bft)
07.05.2026 06:18 7,6 °C 7,7 °C 82 % 94 % 1010,5 hPa 0,0 l/m² 0,0 km/h (0 Bft) NW 315 ° 0 min 4,7 °C 7,6 °C 0,0 km/h (0 Bft)
07.05.2026 06:16 7,6 °C 7,6 °C 82 % 94 % 1010,5 hPa 0,0 l/m² 0,0 km/h (0 Bft) W 270 ° 0 min 4,7 °C 7,6 °C 0,0 km/h (0 Bft)
07.05.2026 06:14 7,6 °C 7,6 °C 82 % 94 % 1010,5 hPa 0,0 l/m² 0,0 km/h (0 Bft) W-SW 247 ° 0 min 4,7 °C 7,6 °C 0,0 km/h (0 Bft)
07.05.2026 06:12 7,6 °C 7,7 °C 82 % 94 % 1010,5 hPa 0,0 l/m² 0,0 km/h (0 Bft) W 270 ° 0 min 4,7 °C 7,6 °C 0,0 km/h (0 Bft)
07.05.2026 06:10 7,6 °C 7,6 °C 82 % 94 % 1010,4 hPa 0,0 l/m² 0,0 km/h (0 Bft) W-SW 247 ° 0 min 4,7 °C 7,6 °C 0,0 km/h (0 Bft)
07.05.2026 06:08 7,6 °C 7,6 °C 82 % 94 % 1010,4 hPa 0,0 l/m² 0,0 km/h (0 Bft) NW 315 ° 0 min 4,7 °C 7,6 °C 0,0 km/h (0 Bft)
07.05.2026 06:06 7,6 °C 7,7 °C 82 % 94 % 1010,4 hPa 0,0 l/m² 0,0 km/h (0 Bft) NW 315 ° 0 min 4,7 °C 7,6 °C 0,0 km/h (0 Bft)
07.05.2026 06:02 7,6 °C 7,7 °C 82 % 94 % 1010,4 hPa 0,0 l/m² 0,0 km/h (0 Bft) NW 315 ° 0 min 4,7 °C 7,6 °C 0,0 km/h (0 Bft)
07.05.2026 06:00 7,6 °C 7,7 °C 82 % 94 % 1010,4 hPa 0,0 l/m² 0,0 km/h (0 Bft) NW 315 ° 0 min 4,7 °C 7,6 °C 0,0 km/h (0 Bft)
07.05.2026 05:58 7,6 °C 7,7 °C 82 % 94 % 1010,4 hPa 0,0 l/m² 0,0 km/h (0 Bft) NW 315 ° 0 min 4,7 °C 7,6 °C 0,0 km/h (0 Bft)
07.05.2026 05:56 7,6 °C 7,6 °C 82 % 94 % 1010,4 hPa 0,0 l/m² 0,0 km/h (0 Bft) NW 315 ° 0 min 4,7 °C 7,6 °C 0,0 km/h (0 Bft)
07.05.2026 05:54 7,6 °C 7,6 °C 82 % 94 % 1010,4 hPa 0,0 l/m² 0,0 km/h (0 Bft) W 270 ° 0 min 4,7 °C 7,6 °C 0,0 km/h (0 Bft)
07.05.2026 05:52 7,6 °C 7,6 °C 82 % 94 % 1010,4 hPa 0,0 l/m² 0,0 km/h (0 Bft) NW 315 ° 0 min 4,7 °C 7,6 °C 0,0 km/h (0 Bft)
07.05.2026 05:50 7,5 °C 7,6 °C 82 % 94 % 1010,2 hPa 0,0 l/m² 0,0 km/h (0 Bft) W 270 ° 0 min 4,6 °C 7,5 °C 0,0 km/h (0 Bft)
07.05.2026 05:48 7,5 °C 7,6 °C 82 % 94 % 1010,2 hPa 0,0 l/m² 0,0 km/h (0 Bft) W-SW 247 ° 0 min 4,6 °C 7,5 °C 0,0 km/h (0 Bft)
07.05.2026 05:46 7,5 °C 7,6 °C 82 % 94 % 1010,2 hPa 0,0 l/m² 0,0 km/h (0 Bft) NW 315 ° 0 min 4,6 °C 7,5 °C 0,0 km/h (0 Bft)
07.05.2026 05:44 7,5 °C 7,6 °C 82 % 94 % 1010,2 hPa 0,0 l/m² 0,0 km/h (0 Bft) NW 315 ° 0 min 4,6 °C 7,5 °C 0,0 km/h (0 Bft)
07.05.2026 05:42 7,5 °C 7,6 °C 82 % 94 % 1010,2 hPa 0,0 l/m² 0,0 km/h (0 Bft) W-SW 247 ° 0 min 4,6 °C 7,5 °C 0,0 km/h (0 Bft)
07.05.2026 05:40 7,5 °C 7,6 °C 82 % 94 % 1010,2 hPa 0,0 l/m² 0,0 km/h (0 Bft) NW 315 ° 0 min 4,6 °C 7,5 °C 0,0 km/h (0 Bft)
07.05.2026 05:38 7,5 °C 7,6 °C 82 % 94 % 1010,2 hPa 0,0 l/m² 0,0 km/h (0 Bft) W-NW 292 ° 0 min 4,6 °C 7,5 °C 0,0 km/h (0 Bft)
07.05.2026 05:36 7,5 °C 7,6 °C 82 % 94 % 1010,2 hPa 0,0 l/m² 0,0 km/h (0 Bft) W 270 ° 0 min 4,6 °C 7,5 °C 0,0 km/h (0 Bft)
07.05.2026 05:34 7,5 °C 7,6 °C 82 % 94 % 1010,2 hPa 0,0 l/m² 0,0 km/h (0 Bft) W 270 ° 0 min 4,6 °C 7,5 °C 0,0 km/h (0 Bft)
07.05.2026 05:32 7,5 °C 7,6 °C 82 % 94 % 1010,2 hPa 0,0 l/m² 0,0 km/h (0 Bft) W-NW 292 ° 0 min 4,6 °C 7,5 °C 0,0 km/h (0 Bft)
07.05.2026 05:30 7,5 °C 7,6 °C 82 % 94 % 1010,2 hPa 0,0 l/m² 0,0 km/h (0 Bft) W-SW 247 ° 0 min 4,6 °C 7,5 °C 0,0 km/h (0 Bft)
07.05.2026 05:28 7,5 °C 7,6 °C 82 % 94 % 1010,2 hPa 0,0 l/m² 0,0 km/h (0 Bft) NW 315 ° 0 min 4,6 °C 7,5 °C 0,0 km/h (0 Bft)
07.05.2026 05:26 7,5 °C 7,6 °C 82 % 94 % 1010,2 hPa 0,0 l/m² 0,0 km/h (0 Bft) W 270 ° 0 min 4,6 °C 7,5 °C 0,0 km/h (0 Bft)
07.05.2026 05:24 7,5 °C 7,6 °C 82 % 94 % 1010,2 hPa 0,0 l/m² 0,0 km/h (0 Bft) W 270 ° 0 min 4,6 °C 7,5 °C 0,0 km/h (0 Bft)
07.05.2026 05:22 7,5 °C 7,6 °C 82 % 94 % 1010,2 hPa 0,0 l/m² 0,0 km/h (0 Bft) W-SW 247 ° 0 min 4,6 °C 7,5 °C 0,0 km/h (0 Bft)
07.05.2026 05:20 7,5 °C 7,6 °C 82 % 94 % 1010,2 hPa 0,0 l/m² 0,0 km/h (0 Bft) W-SW 247 ° 0 min 4,6 °C 7,5 °C 0,0 km/h (0 Bft)
07.05.2026 05:18 7,5 °C 7,6 °C 82 % 94 % 1010,2 hPa 0,0 l/m² 0,0 km/h (0 Bft) W 270 ° 0 min 4,6 °C 7,5 °C 0,0 km/h (0 Bft)
07.05.2026 05:16 7,5 °C 7,6 °C 82 % 94 % 1010,2 hPa 0,0 l/m² 0,0 km/h (0 Bft) S-SW 202 ° 0 min 4,6 °C 7,5 °C 0,0 km/h (0 Bft)
07.05.2026 05:14 7,4 °C 7,6 °C 82 % 94 % 1010,2 hPa 0,0 l/m² 0,0 km/h (0 Bft) W-SW 247 ° 0 min 4,5 °C 7,4 °C 0,0 km/h (0 Bft)
07.05.2026 05:12 7,4 °C 7,6 °C 82 % 94 % 1010,2 hPa 0,0 l/m² 0,0 km/h (0 Bft) W-SW 247 ° 0 min 4,5 °C 7,4 °C 0,0 km/h (0 Bft)
07.05.2026 05:10 7,4 °C 7,6 °C 82 % 94 % 1010,1 hPa 0,0 l/m² 0,0 km/h (0 Bft) W-NW 292 ° 0 min 4,5 °C 7,4 °C 0,0 km/h (0 Bft)
07.05.2026 05:08 7,4 °C 7,6 °C 82 % 94 % 1010,1 hPa 0,0 l/m² 0,0 km/h (0 Bft) W-SW 247 ° 0 min 4,5 °C 7,4 °C 0,0 km/h (0 Bft)
07.05.2026 05:06 7,4 °C 7,6 °C 82 % 94 % 1010,1 hPa 0,0 l/m² 0,0 km/h (0 Bft) W 270 ° 0 min 4,5 °C 7,4 °C 0,0 km/h (0 Bft)
07.05.2026 05:04 7,4 °C 7,6 °C 82 % 94 % 1010,1 hPa 0,0 l/m² 0,0 km/h (0 Bft) W 270 ° 0 min 4,5 °C 7,4 °C 0,0 km/h (0 Bft)
07.05.2026 05:02 7,4 °C 7,6 °C 82 % 94 % 1010,1 hPa 0,0 l/m² 0,0 km/h (0 Bft) NW 315 ° 0 min 4,5 °C 7,4 °C 0,0 km/h (0 Bft)
07.05.2026 05:00 7,4 °C 7,6 °C 82 % 94 % 1010,1 hPa 0,0 l/m² 0,0 km/h (0 Bft) SO 135 ° 0 min 4,5 °C 7,4 °C 0,0 km/h (0 Bft)
07.05.2026 04:58 7,4 °C 7,6 °C 82 % 94 % 1010,1 hPa 0,0 l/m² 0,0 km/h (0 Bft) W 270 ° 0 min 4,5 °C 7,4 °C 0,0 km/h (0 Bft)
07.05.2026 04:56 7,5 °C 7,6 °C 82 % 94 % 1010,1 hPa 0,0 l/m² 0,0 km/h (0 Bft) W 270 ° 0 min 4,6 °C 7,5 °C 0,0 km/h (0 Bft)
07.05.2026 04:54 7,5 °C 7,6 °C 82 % 94 % 1010,1 hPa 0,0 l/m² 0,0 km/h (0 Bft) N-NO 22 ° 0 min 4,6 °C 7,5 °C 0,0 km/h (0 Bft)
07.05.2026 04:52 7,5 °C 7,6 °C 82 % 93 % 1010,1 hPa 0,0 l/m² 0,0 km/h (0 Bft) W-NW 292 ° 0 min 4,6 °C 7,5 °C 0,0 km/h (0 Bft)
07.05.2026 04:50 7,5 °C 7,6 °C 82 % 93 % 1010,0 hPa 0,0 l/m² 0,0 km/h (0 Bft) NW 315 ° 0 min 4,6 °C 7,5 °C 0,0 km/h (0 Bft)
07.05.2026 04:48 7,5 °C 7,7 °C 82 % 94 % 1010,0 hPa 0,0 l/m² 0,0 km/h (0 Bft) W 270 ° 0 min 4,6 °C 7,5 °C 0,0 km/h (0 Bft)
07.05.2026 04:46 7,5 °C 7,7 °C 82 % 93 % 1010,0 hPa 0,0 l/m² 0,0 km/h (0 Bft) NW 315 ° 0 min 4,6 °C 7,5 °C 0,0 km/h (0 Bft)
07.05.2026 04:44 7,6 °C 7,7 °C 82 % 93 % 1010,0 hPa 0,0 l/m² 0,2 km/h (0 Bft) W 270 ° 0 min 4,7 °C 7,6 °C 0,0 km/h (0 Bft)
07.05.2026 04:42 7,6 °C 7,7 °C 82 % 93 % 1010,0 hPa 0,0 l/m² 0,3 km/h (0 Bft) N-NW 337 ° 0 min 4,7 °C 7,6 °C 0,0 km/h (0 Bft)
07.05.2026 04:40 7,6 °C 7,7 °C 82 % 93 % 1010,0 hPa 0,0 l/m² 0,5 km/h (0 Bft) W-SW 247 ° 0 min 4,7 °C 7,6 °C 0,0 km/h (0 Bft)
07.05.2026 04:38 7,6 °C 7,7 °C 82 % 93 % 1010,0 hPa 0,0 l/m² 0,8 km/h (0 Bft) W 270 ° 0 min 4,7 °C 7,6 °C 0,0 km/h (0 Bft)
07.05.2026 04:36 7,7 °C 7,7 °C 82 % 93 % 1010,0 hPa 0,0 l/m² 1,1 km/h (1 Bft) NW 315 ° 0 min 4,8 °C 7,7 °C 0,0 km/h (0 Bft)
07.05.2026 04:34 7,7 °C 7,7 °C 82 % 93 % 1010,0 hPa 0,0 l/m² 1,1 km/h (1 Bft) N-NW 337 ° 0 min 4,8 °C 7,7 °C 0,0 km/h (0 Bft)
07.05.2026 04:32 7,7 °C 7,7 °C 82 % 93 % 1010,0 hPa 0,0 l/m² 1,0 km/h (0 Bft) W 270 ° 0 min 4,8 °C 7,7 °C 3,2 km/h (1 Bft)
07.05.2026 04:30 7,7 °C 7,7 °C 82 % 93 % 1010,1 hPa 0,0 l/m² 0,6 km/h (0 Bft) W-NW 292 ° 0 min 4,8 °C 7,7 °C 0,0 km/h (0 Bft)
07.05.2026 04:28 7,7 °C 7,7 °C 82 % 94 % 1010,1 hPa 0,0 l/m² 0,6 km/h (0 Bft) W-SW 247 ° 0 min 4,8 °C 7,7 °C 3,7 km/h (1 Bft)
07.05.2026 04:26 7,7 °C 7,7 °C 82 % 94 % 1010,1 hPa 0,0 l/m² 0,2 km/h (0 Bft) W 270 ° 0 min 4,8 °C 7,7 °C 1,9 km/h (1 Bft)
07.05.2026 04:24 7,7 °C 7,7 °C 82 % 94 % 1010,1 hPa 0,0 l/m² 0,2 km/h (0 Bft) NW 315 ° 0 min 4,8 °C 7,7 °C 0,0 km/h (0 Bft)
07.05.2026 04:22 7,8 °C 7,7 °C 82 % 94 % 1010,1 hPa 0,0 l/m² 0,5 km/h (0 Bft) W-NW 292 ° 0 min 4,9 °C 7,8 °C 0,0 km/h (0 Bft)
07.05.2026 04:20 7,7 °C 7,7 °C 82 % 93 % 1010,1 hPa 0,0 l/m² 0,5 km/h (0 Bft) W-SW 247 ° 0 min 4,8 °C 7,7 °C 0,0 km/h (0 Bft)
07.05.2026 04:18 7,8 °C 7,7 °C 82 % 94 % 1010,1 hPa 0,0 l/m² 0,8 km/h (0 Bft) W-NW 292 ° 0 min 4,9 °C 7,8 °C 1,6 km/h (1 Bft)
07.05.2026 04:16 7,7 °C 7,7 °C 82 % 94 % 1010,1 hPa 0,0 l/m² 0,8 km/h (0 Bft) S-SO 157 ° 0 min 4,8 °C 7,7 °C 0,0 km/h (0 Bft)
07.05.2026 04:14 7,8 °C 7,8 °C 82 % 94 % 1010,1 hPa 0,0 l/m² 1,0 km/h (0 Bft) W-SW 247 ° 0 min 4,9 °C 7,8 °C 1,8 km/h (1 Bft)
07.05.2026 04:12 7,8 °C 7,8 °C 82 % 94 % 1010,1 hPa 0,0 l/m² 0,8 km/h (0 Bft) SW 225 ° 0 min 4,9 °C 7,8 °C 2,4 km/h (1 Bft)
07.05.2026 04:10 7,8 °C 7,8 °C 82 % 94 % 1009,7 hPa 0,0 l/m² 0,8 km/h (0 Bft) NW 315 ° 0 min 4,9 °C 7,8 °C 0,0 km/h (0 Bft)
07.05.2026 04:08 7,8 °C 7,8 °C 82 % 94 % 1009,7 hPa 0,0 l/m² 0,3 km/h (0 Bft) W 270 ° 0 min 4,9 °C 7,8 °C 0,0 km/h (0 Bft)
07.05.2026 04:06 7,8 °C 7,8 °C 82 % 94 % 1009,7 hPa 0,0 l/m² 0,3 km/h (0 Bft) W 270 ° 0 min 4,9 °C 7,8 °C 1,8 km/h (1 Bft)
07.05.2026 04:04 7,8 °C 7,8 °C 82 % 94 % 1009,7 hPa 0,0 l/m² 0,3 km/h (0 Bft) W-NW 292 ° 0 min 4,9 °C 7,8 °C 2,6 km/h (1 Bft)
07.05.2026 04:02 7,8 °C 7,8 °C 82 % 94 % 1009,7 hPa 0,0 l/m² 0,2 km/h (0 Bft) W-SW 247 ° 0 min 4,9 °C 7,8 °C 0,0 km/h (0 Bft)
07.05.2026 04:00 7,8 °C 7,8 °C 82 % 94 % 1009,7 hPa 0,0 l/m² 0,2 km/h (0 Bft) NW 315 ° 0 min 4,9 °C 7,8 °C 0,0 km/h (0 Bft)
07.05.2026 03:58 7,8 °C 7,8 °C 82 % 94 % 1009,7 hPa 0,0 l/m² 0,3 km/h (0 Bft) W-NW 292 ° 0 min 4,9 °C 7,8 °C 0,0 km/h (0 Bft)
07.05.2026 03:56 7,8 °C 7,8 °C 82 % 94 % 1009,7 hPa 0,0 l/m² 0,3 km/h (0 Bft) W 270 ° 0 min 4,9 °C 7,8 °C 0,0 km/h (0 Bft)
07.05.2026 03:54 7,8 °C 7,8 °C 82 % 94 % 1009,7 hPa 0,0 l/m² 0,3 km/h (0 Bft) NW 315 ° 0 min 4,9 °C 7,8 °C 1,9 km/h (1 Bft)
07.05.2026 03:52 7,7 °C 7,8 °C 82 % 94 % 1009,7 hPa 0,0 l/m² 0,5 km/h (0 Bft) W-SW 247 ° 0 min 4,8 °C 7,7 °C 2,4 km/h (1 Bft)
07.05.2026 03:50 7,7 °C 7,8 °C 82 % 94 % 1009,9 hPa 0,0 l/m² 0,5 km/h (0 Bft) W 270 ° 0 min 4,8 °C 7,7 °C 0,0 km/h (0 Bft)
07.05.2026 03:48 7,8 °C 7,8 °C 82 % 94 % 1009,9 hPa 0,0 l/m² 0,5 km/h (0 Bft) NW 315 ° 0 min 4,9 °C 7,8 °C 0,0 km/h (0 Bft)
07.05.2026 03:46 7,8 °C 7,8 °C 82 % 94 % 1009,9 hPa 0,0 l/m² 0,3 km/h (0 Bft) W 270 ° 0 min 4,9 °C 7,8 °C 0,0 km/h (0 Bft)
07.05.2026 03:44 7,8 °C 7,8 °C 82 % 94 % 1009,9 hPa 0,0 l/m² 0,3 km/h (0 Bft) W 270 ° 0 min 4,9 °C 7,8 °C 2,6 km/h (1 Bft)
07.05.2026 03:42 7,8 °C 7,8 °C 82 % 94 % 1009,9 hPa 0,0 l/m² 0,2 km/h (0 Bft) W 270 ° 0 min 4,9 °C 7,8 °C 0,0 km/h (0 Bft)
07.05.2026 03:40 7,8 °C 7,9 °C 82 % 94 % 1009,9 hPa 0,0 l/m² 0,0 km/h (0 Bft) W 270 ° 0 min 4,9 °C 7,8 °C 0,0 km/h (0 Bft)
07.05.2026 03:38 7,8 °C 7,9 °C 82 % 94 % 1009,9 hPa 0,0 l/m² 0,0 km/h (0 Bft) W 270 ° 0 min 4,9 °C 7,8 °C 0,0 km/h (0 Bft)
07.05.2026 03:36 7,8 °C 7,9 °C 82 % 94 % 1009,9 hPa 0,0 l/m² 0,0 km/h (0 Bft) W 270 ° 0 min 4,9 °C 7,8 °C 0,0 km/h (0 Bft)
07.05.2026 03:34 7,8 °C 7,9 °C 82 % 94 % 1009,9 hPa 0,0 l/m² 0,0 km/h (0 Bft) NW 315 ° 0 min 4,9 °C 7,8 °C 0,0 km/h (0 Bft)
07.05.2026 03:32 7,8 °C 7,9 °C 82 % 94 % 1009,9 hPa 0,0 l/m² 0,0 km/h (0 Bft) NW 315 ° 0 min 4,9 °C 7,8 °C 0,0 km/h (0 Bft)
07.05.2026 03:30 7,8 °C 7,9 °C 82 % 94 % 1009,7 hPa 0,0 l/m² 0,2 km/h (0 Bft) W-SW 247 ° 0 min 4,9 °C 7,8 °C 0,0 km/h (0 Bft)
07.05.2026 03:28 7,8 °C 7,9 °C 82 % 94 % 1009,7 hPa 0,0 l/m² 0,2 km/h (0 Bft) W-NW 292 ° 0 min 4,9 °C 7,8 °C 0,0 km/h (0 Bft)
07.05.2026 03:26 7,8 °C 7,9 °C 82 % 94 % 1009,7 hPa 0,0 l/m² 0,2 km/h (0 Bft) W 270 ° 0 min 4,9 °C 7,8 °C 0,0 km/h (0 Bft)
07.05.2026 03:24 7,8 °C 7,9 °C 82 % 94 % 1009,7 hPa 0,0 l/m² 0,2 km/h (0 Bft) NW 315 ° 0 min 4,9 °C 7,8 °C 0,0 km/h (0 Bft)
07.05.2026 03:22 7,8 °C 7,9 °C 82 % 94 % 1009,7 hPa 0,0 l/m² 0,2 km/h (0 Bft) W-NW 292 ° 0 min 4,9 °C 7,8 °C 0,0 km/h (0 Bft)
07.05.2026 03:20 7,8 °C 7,9 °C 82 % 94 % 1009,7 hPa 0,0 l/m² 0,2 km/h (0 Bft) NW 315 ° 0 min 4,9 °C 7,8 °C 0,0 km/h (0 Bft)
07.05.2026 03:18 7,8 °C 7,9 °C 82 % 94 % 1009,7 hPa 0,0 l/m² 0,2 km/h (0 Bft) W-SW 247 ° 0 min 4,9 °C 7,8 °C 1,9 km/h (1 Bft)
07.05.2026 03:16 7,8 °C 7,9 °C 82 % 94 % 1009,7 hPa 0,0 l/m² 0,2 km/h (0 Bft) NW 315 ° 0 min 4,9 °C 7,8 °C 0,0 km/h (0 Bft)
07.05.2026 03:14 7,8 °C 7,9 °C 82 % 94 % 1009,7 hPa 0,0 l/m² 0,2 km/h (0 Bft) N-NW 337 ° 0 min 4,9 °C 7,8 °C 0,0 km/h (0 Bft)
07.05.2026 03:12 7,9 °C 7,9 °C 82 % 94 % 1009,7 hPa 0,0 l/m² 0,0 km/h (0 Bft) W 270 ° 0 min 5,0 °C 7,9 °C 0,0 km/h (0 Bft)
07.05.2026 03:10 7,9 °C 7,9 °C 82 % 94 % 1009,8 hPa 0,0 l/m² 0,0 km/h (0 Bft) NW 315 ° 0 min 5,0 °C 7,9 °C 0,0 km/h (0 Bft)
07.05.2026 03:08 7,9 °C 7,9 °C 82 % 94 % 1009,8 hPa 0,0 l/m² 0,0 km/h (0 Bft) NW 315 ° 0 min 5,0 °C 7,9 °C 0,0 km/h (0 Bft)
07.05.2026 03:06 7,9 °C 7,9 °C 82 % 94 % 1009,8 hPa 0,0 l/m² 0,0 km/h (0 Bft) W-NW 292 ° 0 min 5,0 °C 7,9 °C 0,0 km/h (0 Bft)
07.05.2026 03:04 7,9 °C 7,9 °C 82 % 94 % 1009,8 hPa 0,0 l/m² 0,0 km/h (0 Bft) NW 315 ° 0 min 5,0 °C 7,9 °C 0,0 km/h (0 Bft)
07.05.2026 03:02 7,9 °C 7,9 °C 82 % 94 % 1009,8 hPa 0,0 l/m² 0,0 km/h (0 Bft) N-NW 337 ° 0 min 5,0 °C 7,9 °C 0,0 km/h (0 Bft)
07.05.2026 03:00 7,9 °C 7,9 °C 82 % 94 % 1009,8 hPa 0,0 l/m² 0,0 km/h (0 Bft) W-SW 247 ° 0 min 5,0 °C 7,9 °C 0,0 km/h (0 Bft)
07.05.2026 02:58 7,8 °C 7,9 °C 82 % 94 % 1009,8 hPa 0,0 l/m² 0,0 km/h (0 Bft) NW 315 ° 0 min 4,9 °C 7,8 °C 0,0 km/h (0 Bft)
07.05.2026 02:56 7,8 °C 7,9 °C 82 % 94 % 1009,8 hPa 0,0 l/m² 0,0 km/h (0 Bft) N-NW 337 ° 0 min 4,9 °C 7,8 °C 0,0 km/h (0 Bft)
07.05.2026 02:54 7,8 °C 7,9 °C 82 % 94 % 1009,8 hPa 0,0 l/m² 0,0 km/h (0 Bft) NW 315 ° 0 min 4,9 °C 7,8 °C 0,0 km/h (0 Bft)
07.05.2026 02:52 7,8 °C 7,9 °C 82 % 94 % 1009,8 hPa 0,0 l/m² 0,0 km/h (0 Bft) W-NW 292 ° 0 min 4,9 °C 7,8 °C 0,0 km/h (0 Bft)
07.05.2026 02:50 7,8 °C 7,9 °C 82 % 94 % 1009,7 hPa 0,0 l/m² 0,0 km/h (0 Bft) NW 315 ° 0 min 4,9 °C 7,8 °C 0,0 km/h (0 Bft)
07.05.2026 02:48 7,8 °C 7,9 °C 82 % 94 % 1009,7 hPa 0,0 l/m² 0,0 km/h (0 Bft) W-NW 292 ° 0 min 4,9 °C 7,8 °C 0,0 km/h (0 Bft)
07.05.2026 02:46 7,8 °C 7,9 °C 82 % 94 % 1009,7 hPa 0,0 l/m² 0,0 km/h (0 Bft) W 270 ° 0 min 4,9 °C 7,8 °C 0,0 km/h (0 Bft)
07.05.2026 02:44 7,8 °C 7,9 °C 82 % 94 % 1009,7 hPa 0,0 l/m² 0,0 km/h (0 Bft) NW 315 ° 0 min 4,9 °C 7,8 °C 0,0 km/h (0 Bft)
07.05.2026 02:42 7,8 °C 7,9 °C 82 % 94 % 1009,7 hPa 0,0 l/m² 0,0 km/h (0 Bft) W 270 ° 0 min 4,9 °C 7,8 °C 0,0 km/h (0 Bft)
07.05.2026 02:40 7,7 °C 7,9 °C 82 % 94 % 1009,7 hPa 0,0 l/m² 0,0 km/h (0 Bft) W 270 ° 0 min 4,8 °C 7,7 °C 0,0 km/h (0 Bft)
07.05.2026 02:38 7,7 °C 7,9 °C 82 % 94 % 1009,7 hPa 0,0 l/m² 0,0 km/h (0 Bft) NW 315 ° 0 min 4,8 °C 7,7 °C 0,0 km/h (0 Bft)
07.05.2026 02:36 7,7 °C 7,9 °C 82 % 94 % 1009,7 hPa 0,0 l/m² 0,0 km/h (0 Bft) W 270 ° 0 min 4,8 °C 7,7 °C 0,0 km/h (0 Bft)
07.05.2026 02:34 7,7 °C 7,9 °C 82 % 94 % 1009,7 hPa 0,0 l/m² 0,0 km/h (0 Bft) W-NW 292 ° 0 min 4,8 °C 7,7 °C 0,0 km/h (0 Bft)
07.05.2026 02:32 7,7 °C 7,9 °C 82 % 94 % 1009,7 hPa 0,0 l/m² 0,0 km/h (0 Bft) W-NW 292 ° 0 min 4,8 °C 7,7 °C 0,0 km/h (0 Bft)
07.05.2026 02:30 7,7 °C 7,9 °C 82 % 94 % 1009,6 hPa 0,0 l/m² 0,0 km/h (0 Bft) W 270 ° 0 min 4,8 °C 7,7 °C 0,0 km/h (0 Bft)
07.05.2026 02:28 7,6 °C 7,9 °C 82 % 94 % 1009,6 hPa 0,0 l/m² 0,0 km/h (0 Bft) W-NW 292 ° 0 min 4,7 °C 7,6 °C 0,0 km/h (0 Bft)
07.05.2026 02:26 7,6 °C 7,9 °C 82 % 94 % 1009,6 hPa 0,0 l/m² 0,0 km/h (0 Bft) W 270 ° 0 min 4,7 °C 7,6 °C 0,0 km/h (0 Bft)
07.05.2026 02:24 7,6 °C 7,9 °C 82 % 94 % 1009,6 hPa 0,0 l/m² 0,0 km/h (0 Bft) N-NW 337 ° 0 min 4,7 °C 7,6 °C 0,0 km/h (0 Bft)
07.05.2026 02:22 7,6 °C 7,9 °C 82 % 94 % 1009,6 hPa 0,0 l/m² 0,0 km/h (0 Bft) N-NW 337 ° 0 min 4,7 °C 7,6 °C 0,0 km/h (0 Bft)
07.05.2026 02:20 7,6 °C 7,9 °C 82 % 94 % 1009,6 hPa 0,0 l/m² 0,0 km/h (0 Bft) W-NW 292 ° 0 min 4,7 °C 7,6 °C 0,0 km/h (0 Bft)
07.05.2026 02:18 7,5 °C 7,9 °C 82 % 94 % 1009,6 hPa 0,0 l/m² 0,0 km/h (0 Bft) O-NO 67 ° 0 min 4,6 °C 7,5 °C 0,0 km/h (0 Bft)
07.05.2026 02:16 7,5 °C 7,9 °C 82 % 94 % 1009,6 hPa 0,0 l/m² 0,0 km/h (0 Bft) W 270 ° 0 min 4,6 °C 7,5 °C 0,0 km/h (0 Bft)
07.05.2026 02:14 7,5 °C 7,9 °C 82 % 94 % 1009,6 hPa 0,0 l/m² 0,0 km/h (0 Bft) N-NO 22 ° 0 min 4,6 °C 7,5 °C 0,0 km/h (0 Bft)
07.05.2026 02:12 7,5 °C 7,9 °C 82 % 94 % 1009,6 hPa 0,0 l/m² 0,0 km/h (0 Bft) O-NO 67 ° 0 min 4,6 °C 7,5 °C 0,0 km/h (0 Bft)
07.05.2026 02:10 7,5 °C 7,9 °C 82 % 94 % 1009,8 hPa 0,0 l/m² 0,0 km/h (0 Bft) NO 45 ° 0 min 4,6 °C 7,5 °C 0,0 km/h (0 Bft)
07.05.2026 02:08 7,5 °C 7,9 °C 82 % 94 % 1009,8 hPa 0,0 l/m² 0,0 km/h (0 Bft) W 270 ° 0 min 4,6 °C 7,5 °C 0,0 km/h (0 Bft)
07.05.2026 02:06 7,5 °C 7,9 °C 82 % 94 % 1009,8 hPa 0,0 l/m² 0,0 km/h (0 Bft) NW 315 ° 0 min 4,6 °C 7,5 °C 0,0 km/h (0 Bft)
07.05.2026 02:04 7,5 °C 7,9 °C 82 % 94 % 1009,8 hPa 0,0 l/m² 0,0 km/h (0 Bft) O 90 ° 0 min 4,6 °C 7,5 °C 0,0 km/h (0 Bft)
07.05.2026 02:02 7,5 °C 7,9 °C 82 % 94 % 1009,8 hPa 0,0 l/m² 0,0 km/h (0 Bft) N-NO 22 ° 0 min 4,6 °C 7,5 °C 0,0 km/h (0 Bft)
07.05.2026 02:00 7,5 °C 7,9 °C 82 % 94 % 1009,8 hPa 0,0 l/m² 0,0 km/h (0 Bft) O-NO 67 ° 0 min 4,6 °C 7,5 °C 0,0 km/h (0 Bft)
07.05.2026 01:58 7,5 °C 7,9 °C 82 % 94 % 1009,8 hPa 0,0 l/m² 0,0 km/h (0 Bft) N-NO 22 ° 0 min 4,6 °C 7,5 °C 0,0 km/h (0 Bft)
07.05.2026 01:56 7,5 °C 7,9 °C 82 % 94 % 1009,8 hPa 0,0 l/m² 0,2 km/h (0 Bft) N-NO 22 ° 0 min 4,6 °C 7,5 °C 0,0 km/h (0 Bft)
07.05.2026 01:54 7,6 °C 7,9 °C 82 % 94 % 1009,8 hPa 0,0 l/m² 0,2 km/h (0 Bft) O-NO 67 ° 0 min 4,7 °C 7,6 °C 4,2 km/h (1 Bft)
07.05.2026 01:52 7,5 °C 7,9 °C 82 % 94 % 1009,8 hPa 0,0 l/m² 0,2 km/h (0 Bft) O-NO 67 ° 0 min 4,6 °C 7,5 °C 0,0 km/h (0 Bft)
07.05.2026 01:50 7,6 °C 7,9 °C 82 % 94 % 1009,8 hPa 0,0 l/m² 0,2 km/h (0 Bft) O 90 ° 0 min 4,7 °C 7,6 °C 0,0 km/h (0 Bft)
07.05.2026 01:48 7,6 °C 7,9 °C 82 % 94 % 1009,8 hPa 0,0 l/m² 0,2 km/h (0 Bft) NO 45 ° 0 min 4,7 °C 7,6 °C 2,4 km/h (1 Bft)
07.05.2026 01:46 7,6 °C 7,9 °C 82 % 94 % 1009,8 hPa 0,0 l/m² 0,2 km/h (0 Bft) NW 315 ° 0 min 4,7 °C 7,6 °C 0,0 km/h (0 Bft)
07.05.2026 01:44 7,6 °C 8,0 °C 82 % 94 % 1009,8 hPa 0,0 l/m² 0,0 km/h (0 Bft) NO 45 ° 0 min 4,7 °C 7,6 °C 0,0 km/h (0 Bft)
07.05.2026 01:42 7,6 °C 7,9 °C 82 % 94 % 1009,8 hPa 0,0 l/m² 0,0 km/h (0 Bft) W 270 ° 0 min 4,7 °C 7,6 °C 0,0 km/h (0 Bft)
07.05.2026 01:40 7,6 °C 8,0 °C 82 % 94 % 1009,8 hPa 0,0 l/m² 0,0 km/h (0 Bft) NO 45 ° 0 min 4,7 °C 7,6 °C 0,0 km/h (0 Bft)
07.05.2026 01:38 7,6 °C 8,0 °C 82 % 94 % 1009,8 hPa 0,0 l/m² 0,2 km/h (0 Bft) N 360 ° 0 min 4,7 °C 7,6 °C 0,0 km/h (0 Bft)
07.05.2026 01:36 7,6 °C 8,0 °C 82 % 94 % 1009,8 hPa 0,0 l/m² 0,2 km/h (0 Bft) N-NO 22 ° 0 min 4,7 °C 7,6 °C 0,0 km/h (0 Bft)
07.05.2026 01:34 7,7 °C 7,9 °C 82 % 94 % 1009,8 hPa 0,0 l/m² 0,2 km/h (0 Bft) N-NW 337 ° 0 min 4,8 °C 7,7 °C 0,0 km/h (0 Bft)
07.05.2026 01:32 7,7 °C 8,0 °C 82 % 94 % 1009,8 hPa 0,0 l/m² 0,2 km/h (0 Bft) NW 315 ° 0 min 4,8 °C 7,7 °C 0,0 km/h (0 Bft)
07.05.2026 01:30 7,7 °C 8,0 °C 82 % 94 % 1009,5 hPa 0,0 l/m² 0,2 km/h (0 Bft) NO 45 ° 0 min 4,8 °C 7,7 °C 0,0 km/h (0 Bft)
07.05.2026 01:28 7,7 °C 8,0 °C 82 % 94 % 1009,5 hPa 0,0 l/m² 0,0 km/h (0 Bft) O-NO 67 ° 0 min 4,8 °C 7,7 °C 0,0 km/h (0 Bft)
07.05.2026 01:26 7,7 °C 8,0 °C 82 % 94 % 1009,5 hPa 0,0 l/m² 0,0 km/h (0 Bft) NO 45 ° 0 min 4,8 °C 7,7 °C 0,0 km/h (0 Bft)
07.05.2026 01:24 7,7 °C 8,0 °C 82 % 94 % 1009,5 hPa 0,0 l/m² 0,0 km/h (0 Bft) NO 45 ° 0 min 4,8 °C 7,7 °C 0,0 km/h (0 Bft)
07.05.2026 01:22 7,7 °C 8,0 °C 82 % 94 % 1009,5 hPa 0,0 l/m² 0,0 km/h (0 Bft) NW 315 ° 0 min 4,8 °C 7,7 °C 0,0 km/h (0 Bft)
07.05.2026 01:20 7,7 °C 8,0 °C 82 % 94 % 1009,5 hPa 0,0 l/m² 0,0 km/h (0 Bft) N 360 ° 0 min 4,8 °C 7,7 °C 0,0 km/h (0 Bft)
07.05.2026 01:18 7,7 °C 8,0 °C 82 % 94 % 1009,5 hPa 0,0 l/m² 0,0 km/h (0 Bft) O 90 ° 0 min 4,8 °C 7,7 °C 0,0 km/h (0 Bft)
07.05.2026 01:16 7,7 °C 8,0 °C 82 % 94 % 1009,5 hPa 0,0 l/m² 0,0 km/h (0 Bft) NW 315 ° 0 min 4,8 °C 7,7 °C 0,0 km/h (0 Bft)
07.05.2026 01:14 7,7 °C 8,0 °C 82 % 94 % 1009,5 hPa 0,0 l/m² 0,2 km/h (0 Bft) O-NO 67 ° 0 min 4,8 °C 7,7 °C 0,0 km/h (0 Bft)
07.05.2026 01:12 7,7 °C 8,0 °C 82 % 94 % 1009,5 hPa 0,0 l/m² 0,2 km/h (0 Bft) O-NO 67 ° 0 min 4,8 °C 7,7 °C 0,0 km/h (0 Bft)
07.05.2026 01:10 7,8 °C 8,0 °C 82 % 94 % 1009,5 hPa 0,0 l/m² 0,2 km/h (0 Bft) NW 315 ° 0 min 4,9 °C 7,8 °C 0,0 km/h (0 Bft)
07.05.2026 01:08 7,8 °C 8,1 °C 82 % 94 % 1009,5 hPa 0,0 l/m² 0,2 km/h (0 Bft) NW 315 ° 0 min 4,9 °C 7,8 °C 0,0 km/h (0 Bft)
07.05.2026 01:06 7,8 °C 8,0 °C 82 % 94 % 1009,5 hPa 0,0 l/m² 0,2 km/h (0 Bft) N-NW 337 ° 0 min 4,9 °C 7,8 °C 0,0 km/h (0 Bft)
07.05.2026 01:04 7,8 °C 8,0 °C 82 % 94 % 1009,5 hPa 0,0 l/m² 0,2 km/h (0 Bft) W 270 ° 0 min 4,9 °C 7,8 °C 2,6 km/h (1 Bft)
07.05.2026 01:02 7,8 °C 8,0 °C 82 % 94 % 1009,5 hPa 0,0 l/m² 0,3 km/h (0 Bft) NW 315 ° 0 min 4,9 °C 7,8 °C 0,0 km/h (0 Bft)
07.05.2026 01:00 7,8 °C 8,1 °C 82 % 94 % 1009,5 hPa 0,0 l/m² 0,3 km/h (0 Bft) W-NW 292 ° 0 min 4,9 °C 7,8 °C 0,0 km/h (0 Bft)
07.05.2026 00:58 7,8 °C 8,1 °C 82 % 94 % 1009,5 hPa 0,0 l/m² 0,5 km/h (0 Bft) S-SO 157 ° 0 min 4,9 °C 7,8 °C 0,0 km/h (0 Bft)
07.05.2026 00:56 7,8 °C 8,1 °C 82 % 94 % 1009,5 hPa 0,0 l/m² 0,8 km/h (0 Bft) W-SW 247 ° 0 min 4,9 °C 7,8 °C 0,0 km/h (0 Bft)
07.05.2026 00:54 7,8 °C 8,1 °C 82 % 94 % 1009,5 hPa 0,0 l/m² 1,3 km/h (1 Bft) O-SO 112 ° 0 min 4,9 °C 7,8 °C 0,0 km/h (0 Bft)
07.05.2026 00:52 7,9 °C 8,0 °C 82 % 94 % 1009,5 hPa 0,0 l/m² 1,1 km/h (1 Bft) O-NO 67 ° 0 min 5,0 °C 7,9 °C 5,3 km/h (1 Bft)
07.05.2026 00:50 7,9 °C 8,0 °C 82 % 94 % 1009,6 hPa 0,0 l/m² 1,0 km/h (0 Bft) O-NO 67 ° 0 min 5,0 °C 7,9 °C 2,3 km/h (1 Bft)
07.05.2026 00:48 7,9 °C 8,0 °C 82 % 94 % 1009,6 hPa 0,0 l/m² 0,8 km/h (0 Bft) NO 45 ° 0 min 5,0 °C 7,9 °C 2,3 km/h (1 Bft)
07.05.2026 00:46 7,9 °C 8,1 °C 82 % 94 % 1009,6 hPa 0,0 l/m² 0,8 km/h (0 Bft) W 270 ° 0 min 5,0 °C 7,9 °C 3,7 km/h (1 Bft)
07.05.2026 00:44 7,9 °C 8,1 °C 82 % 94 % 1009,6 hPa 0,0 l/m² 0,0 km/h (0 Bft) W 270 ° 0 min 5,0 °C 7,9 °C 0,0 km/h (0 Bft)
07.05.2026 00:42 7,8 °C 8,1 °C 82 % 94 % 1009,6 hPa 0,0 l/m² 0,0 km/h (0 Bft) W 270 ° 0 min 4,9 °C 7,8 °C 0,0 km/h (0 Bft)
07.05.2026 00:40 7,8 °C 8,1 °C 82 % 94 % 1009,6 hPa 0,0 l/m² 0,0 km/h (0 Bft) NW 315 ° 0 min 4,9 °C 7,8 °C 0,0 km/h (0 Bft)
07.05.2026 00:38 7,8 °C 8,1 °C 82 % 94 % 1009,6 hPa 0,0 l/m² 0,0 km/h (0 Bft) W 270 ° 0 min 4,9 °C 7,8 °C 0,0 km/h (0 Bft)
07.05.2026 00:36 7,8 °C 8,1 °C 82 % 94 % 1009,6 hPa 0,0 l/m² 0,0 km/h (0 Bft) NW 315 ° 0 min 4,9 °C 7,8 °C 0,0 km/h (0 Bft)
07.05.2026 00:34 7,8 °C 8,1 °C 82 % 94 % 1009,6 hPa 0,0 l/m² 0,0 km/h (0 Bft) NW 315 ° 0 min 4,9 °C 7,8 °C 0,0 km/h (0 Bft)
07.05.2026 00:32 7,7 °C 8,1 °C 82 % 94 % 1009,6 hPa 0,0 l/m² 0,2 km/h (0 Bft) N 360 ° 0 min 4,8 °C 7,7 °C 0,0 km/h (0 Bft)
07.05.2026 00:30 7,7 °C 8,1 °C 82 % 94 % 1009,5 hPa 0,0 l/m² 0,2 km/h (0 Bft) NW 315 ° 0 min 4,8 °C 7,7 °C 0,0 km/h (0 Bft)
07.05.2026 00:28 7,7 °C 8,1 °C 82 % 94 % 1009,5 hPa 0,0 l/m² 0,3 km/h (0 Bft) NO 45 ° 0 min 4,8 °C 7,7 °C 0,0 km/h (0 Bft)
07.05.2026 00:26 7,7 °C 8,1 °C 82 % 94 % 1009,5 hPa 0,0 l/m² 0,3 km/h (0 Bft) O 90 ° 0 min 4,8 °C 7,7 °C 0,0 km/h (0 Bft)
07.05.2026 00:24 7,7 °C 8,1 °C 82 % 94 % 1009,5 hPa 0,0 l/m² 0,3 km/h (0 Bft) N-NW 337 ° 0 min 4,8 °C 7,7 °C 0,0 km/h (0 Bft)
07.05.2026 00:22 7,7 °C 8,1 °C 82 % 94 % 1009,5 hPa 0,0 l/m² 0,5 km/h (0 Bft) O-NO 67 ° 0 min 4,8 °C 7,7 °C 0,0 km/h (0 Bft)
07.05.2026 00:20 7,8 °C 8,1 °C 82 % 94 % 1009,5 hPa 0,0 l/m² 1,0 km/h (0 Bft) NO 45 ° 0 min 4,9 °C 7,8 °C 2,1 km/h (1 Bft)
07.05.2026 00:18 7,8 °C 8,1 °C 82 % 94 % 1009,5 hPa 0,0 l/m² 1,0 km/h (0 Bft) NW 315 ° 0 min 4,9 °C 7,8 °C 6,1 km/h (2 Bft)
07.05.2026 00:16 7,8 °C 8,1 °C 82 % 94 % 1009,5 hPa 0,0 l/m² 1,0 km/h (0 Bft) NO 45 ° 0 min 4,9 °C 7,8 °C 0,0 km/h (0 Bft)
07.05.2026 00:14 7,8 °C 8,1 °C 82 % 94 % 1009,5 hPa 0,0 l/m² 1,0 km/h (0 Bft) SO 135 ° 0 min 4,9 °C 7,8 °C 0,0 km/h (0 Bft)
07.05.2026 00:12 7,8 °C 8,1 °C 82 % 94 % 1009,5 hPa 0,0 l/m² 1,1 km/h (1 Bft) N-NO 22 ° 0 min 4,9 °C 7,8 °C 4,3 km/h (1 Bft)
07.05.2026 00:10 7,9 °C 8,1 °C 82 % 94 % 1009,4 hPa 0,0 l/m² 1,0 km/h (0 Bft) N-NO 22 ° 0 min 5,0 °C 7,9 °C 5,6 km/h (2 Bft)
07.05.2026 00:08 7,9 °C 8,1 °C 82 % 94 % 1009,4 hPa 0,0 l/m² 0,5 km/h (0 Bft) SW 225 ° 0 min 5,0 °C 7,9 °C 3,9 km/h (1 Bft)
07.05.2026 00:06 7,9 °C 8,1 °C 82 % 94 % 1009,4 hPa 0,0 l/m² 0,2 km/h (0 Bft) O-NO 67 ° 0 min 5,0 °C 7,9 °C 0,0 km/h (0 Bft)
07.05.2026 00:04 7,9 °C 8,1 °C 82 % 94 % 1009,4 hPa 0,0 l/m² 0,2 km/h (0 Bft) O-NO 67 ° 0 min 5,0 °C 7,9 °C 0,0 km/h (0 Bft)
07.05.2026 00:03 7,9 °C 8,1 °C 82 % 94 % 1009,4 hPa 0,0 l/m² 0,2 km/h (0 Bft) NO 45 ° 0 min 5,0 °C 7,9 °C 3,9 km/h (1 Bft)
07.05.2026 00:00 7,9 °C 8,1 °C 82 % 94 % 1009,4 hPa 0,0 l/m² 0,0 km/h (0 Bft) O-SO 112 ° 0 min 5,0 °C 7,9 °C 0,0 km/h (0 Bft)
06.05.2026 23:58 7,9 °C 8,1 °C 82 % 94 % 1009,4 hPa 0,0 l/m² 0,0 km/h (0 Bft) NW 315 ° 0 min 5,0 °C 7,9 °C 0,0 km/h (0 Bft)
06.05.2026 23:56 7,9 °C 8,1 °C 82 % 94 % 1009,4 hPa 0,0 l/m² 0,0 km/h (0 Bft) W 270 ° 0 min 5,0 °C 7,9 °C 0,0 km/h (0 Bft)
06.05.2026 23:54 7,9 °C 8,1 °C 82 % 94 % 1009,4 hPa 0,0 l/m² 0,0 km/h (0 Bft) NW 315 ° 0 min 5,0 °C 7,9 °C 0,0 km/h (0 Bft)
06.05.2026 23:52 7,9 °C 8,1 °C 82 % 94 % 1009,4 hPa 0,0 l/m² 0,0 km/h (0 Bft) NW 315 ° 0 min 5,0 °C 7,9 °C 0,0 km/h (0 Bft)
06.05.2026 23:50 7,9 °C 8,1 °C 82 % 94 % 1009,3 hPa 0,0 l/m² 0,0 km/h (0 Bft) SO 135 ° 0 min 5,0 °C 7,9 °C 0,0 km/h (0 Bft)
06.05.2026 23:48 7,9 °C 8,1 °C 82 % 94 % 1009,3 hPa 0,0 l/m² 0,0 km/h (0 Bft) W-NW 292 ° 0 min 5,0 °C 7,9 °C 0,0 km/h (0 Bft)
06.05.2026 23:46 7,9 °C 8,1 °C 82 % 94 % 1009,3 hPa 0,0 l/m² 0,0 km/h (0 Bft) NO 45 ° 0 min 5,0 °C 7,9 °C 0,0 km/h (0 Bft)
06.05.2026 23:44 7,9 °C 8,1 °C 82 % 94 % 1009,3 hPa 0,0 l/m² 0,2 km/h (0 Bft) NW 315 ° 0 min 5,0 °C 7,9 °C 0,0 km/h (0 Bft)
06.05.2026 23:42 7,9 °C 8,1 °C 82 % 94 % 1009,3 hPa 0,0 l/m² 0,2 km/h (0 Bft) O-NO 67 ° 0 min 5,0 °C 7,9 °C 0,0 km/h (0 Bft)
06.05.2026 23:40 7,9 °C 8,1 °C 82 % 94 % 1009,3 hPa 0,0 l/m² 0,2 km/h (0 Bft) N-NW 337 ° 0 min 5,0 °C 7,9 °C 0,0 km/h (0 Bft)
06.05.2026 23:38 7,9 °C 8,1 °C 82 % 94 % 1009,3 hPa 0,0 l/m² 0,2 km/h (0 Bft) SO 135 ° 0 min 5,0 °C 7,9 °C 0,0 km/h (0 Bft)
06.05.2026 23:36 7,9 °C 8,1 °C 82 % 94 % 1009,3 hPa 0,0 l/m² 0,2 km/h (0 Bft) NO 45 ° 0 min 5,0 °C 7,9 °C 0,0 km/h (0 Bft)
06.05.2026 23:34 7,9 °C 8,1 °C 82 % 94 % 1009,3 hPa 0,0 l/m² 0,0 km/h (0 Bft) NO 45 ° 0 min 5,0 °C 7,9 °C 1,6 km/h (1 Bft)
06.05.2026 23:32 7,9 °C 8,1 °C 82 % 94 % 1009,3 hPa 0,0 l/m² 0,0 km/h (0 Bft) NO 45 ° 0 min 5,0 °C 7,9 °C 0,0 km/h (0 Bft)
06.05.2026 23:30 7,9 °C 8,1 °C 82 % 94 % 1009,8 hPa 0,0 l/m² 0,0 km/h (0 Bft) N-NO 22 ° 0 min 5,0 °C 7,9 °C 0,0 km/h (0 Bft)
06.05.2026 23:28 7,9 °C 8,1 °C 82 % 94 % 1009,8 hPa 0,0 l/m² 0,0 km/h (0 Bft) NW 315 ° 0 min 5,0 °C 7,9 °C 0,0 km/h (0 Bft)
06.05.2026 23:26 7,9 °C 8,1 °C 82 % 94 % 1009,8 hPa 0,0 l/m² 0,0 km/h (0 Bft) W-NW 292 ° 0 min 5,0 °C 7,9 °C 0,0 km/h (0 Bft)
06.05.2026 23:24 7,9 °C 8,1 °C 82 % 94 % 1009,8 hPa 0,0 l/m² 0,0 km/h (0 Bft) S-SW 202 ° 0 min 5,0 °C 7,9 °C 0,0 km/h (0 Bft)
06.05.2026 23:22 7,9 °C 8,1 °C 82 % 94 % 1009,8 hPa 0,0 l/m² 0,0 km/h (0 Bft) N-NO 22 ° 0 min 5,0 °C 7,9 °C 0,0 km/h (0 Bft)
06.05.2026 23:20 7,9 °C 8,0 °C 82 % 94 % 1009,8 hPa 0,0 l/m² 0,0 km/h (0 Bft) N-NW 337 ° 0 min 5,0 °C 7,9 °C 0,0 km/h (0 Bft)
06.05.2026 23:18 7,9 °C 8,0 °C 82 % 94 % 1009,8 hPa 0,0 l/m² 0,0 km/h (0 Bft) O-NO 67 ° 0 min 5,0 °C 7,9 °C 0,0 km/h (0 Bft)
06.05.2026 23:16 7,9 °C 8,0 °C 82 % 94 % 1009,8 hPa 0,0 l/m² 0,0 km/h (0 Bft) N-NO 22 ° 0 min 5,0 °C 7,9 °C 0,0 km/h (0 Bft)
06.05.2026 23:14 7,9 °C 8,0 °C 82 % 94 % 1009,8 hPa 0,0 l/m² 0,0 km/h (0 Bft) NW 315 ° 0 min 5,0 °C 7,9 °C 0,0 km/h (0 Bft)
06.05.2026 23:12 7,9 °C 8,0 °C 82 % 94 % 1009,8 hPa 0,0 l/m² 0,0 km/h (0 Bft) NO 45 ° 0 min 5,0 °C 7,9 °C 0,0 km/h (0 Bft)
06.05.2026 23:10 7,9 °C 8,0 °C 82 % 94 % 1009,0 hPa 0,0 l/m² 0,0 km/h (0 Bft) W-NW 292 ° 0 min 5,0 °C 7,9 °C 0,0 km/h (0 Bft)
06.05.2026 23:08 7,9 °C 8,0 °C 82 % 94 % 1009,0 hPa 0,0 l/m² 0,0 km/h (0 Bft) NO 45 ° 0 min 5,0 °C 7,9 °C 0,0 km/h (0 Bft)
06.05.2026 23:06 7,9 °C 8,0 °C 82 % 94 % 1009,0 hPa 0,0 l/m² 0,0 km/h (0 Bft) W 270 ° 0 min 5,0 °C 7,9 °C 0,0 km/h (0 Bft)
06.05.2026 23:04 7,9 °C 8,0 °C 82 % 94 % 1009,0 hPa 0,0 l/m² 0,0 km/h (0 Bft) NW 315 ° 0 min 5,0 °C 7,9 °C 0,0 km/h (0 Bft)
06.05.2026 23:02 7,9 °C 8,0 °C 82 % 94 % 1009,0 hPa 0,0 l/m² 0,2 km/h (0 Bft) N-NW 337 ° 0 min 5,0 °C 7,9 °C 2,7 km/h (1 Bft)
06.05.2026 23:00 7,9 °C 8,0 °C 82 % 94 % 1009,0 hPa 0,0 l/m² 0,0 km/h (0 Bft) NW 315 ° 0 min 5,0 °C 7,9 °C 0,0 km/h (0 Bft)
06.05.2026 22:58 7,9 °C 8,0 °C 82 % 94 % 1009,0 hPa 0,0 l/m² 0,2 km/h (0 Bft) NW 315 ° 0 min 5,0 °C 7,9 °C 0,0 km/h (0 Bft)
06.05.2026 22:56 7,9 °C 7,9 °C 82 % 94 % 1009,0 hPa 0,0 l/m² 0,3 km/h (0 Bft) W 270 ° 0 min 5,0 °C 7,9 °C 0,0 km/h (0 Bft)
06.05.2026 22:54 7,9 °C 8,0 °C 82 % 94 % 1009,0 hPa 0,0 l/m² 0,5 km/h (0 Bft) W-NW 292 ° 0 min 5,0 °C 7,9 °C 0,0 km/h (0 Bft)
06.05.2026 22:52 7,9 °C 8,0 °C 82 % 94 % 1009,0 hPa 0,0 l/m² 0,5 km/h (0 Bft) W-NW 292 ° 0 min 5,0 °C 7,9 °C 2,1 km/h (1 Bft)
06.05.2026 22:50 7,9 °C 7,9 °C 82 % 94 % 1009,1 hPa 0,0 l/m² 0,5 km/h (0 Bft) W 270 ° 0 min 5,0 °C 7,9 °C 0,0 km/h (0 Bft)
06.05.2026 22:48 7,9 °C 7,9 °C 82 % 94 % 1009,1 hPa 0,0 l/m² 0,8 km/h (0 Bft) W 270 ° 0 min 5,0 °C 7,9 °C 2,1 km/h (1 Bft)
06.05.2026 22:46 7,9 °C 7,9 °C 82 % 94 % 1009,1 hPa 0,0 l/m² 0,6 km/h (0 Bft) O 90 ° 0 min 5,0 °C 7,9 °C 0,0 km/h (0 Bft)
06.05.2026 22:44 7,9 °C 7,9 °C 82 % 94 % 1009,1 hPa 0,0 l/m² 0,5 km/h (0 Bft) W 270 ° 0 min 5,0 °C 7,9 °C 3,9 km/h (1 Bft)
06.05.2026 22:42 7,9 °C 8,0 °C 82 % 94 % 1009,1 hPa 0,0 l/m² 0,3 km/h (0 Bft) NW 315 ° 0 min 5,0 °C 7,9 °C 0,0 km/h (0 Bft)
06.05.2026 22:40 7,9 °C 8,0 °C 82 % 94 % 1009,1 hPa 0,0 l/m² 0,5 km/h (0 Bft) W 270 ° 0 min 5,0 °C 7,9 °C 0,0 km/h (0 Bft)
06.05.2026 22:38 7,8 °C 8,0 °C 82 % 94 % 1009,1 hPa 0,0 l/m² 0,3 km/h (0 Bft) W-SW 247 ° 0 min 4,9 °C 7,8 °C 1,6 km/h (1 Bft)
06.05.2026 22:36 7,8 °C 8,0 °C 82 % 94 % 1009,1 hPa 0,0 l/m² 0,3 km/h (0 Bft) N-NW 337 ° 0 min 4,9 °C 7,8 °C 0,0 km/h (0 Bft)
06.05.2026 22:34 7,7 °C 8,0 °C 82 % 94 % 1009,1 hPa 0,0 l/m² 0,2 km/h (0 Bft) W 270 ° 0 min 4,8 °C 7,7 °C 0,0 km/h (0 Bft)
06.05.2026 22:32 7,7 °C 8,0 °C 82 % 94 % 1009,1 hPa 0,0 l/m² 0,2 km/h (0 Bft) W 270 ° 0 min 4,8 °C 7,7 °C 2,4 km/h (1 Bft)
06.05.2026 22:30 7,7 °C 8,0 °C 82 % 94 % 1008,9 hPa 0,0 l/m² 0,2 km/h (0 Bft) W 270 ° 0 min 4,8 °C 7,7 °C 2,6 km/h (1 Bft)
06.05.2026 22:28 7,7 °C 8,0 °C 82 % 94 % 1008,9 hPa 0,0 l/m² 0,2 km/h (0 Bft) W 270 ° 0 min 4,8 °C 7,7 °C 0,0 km/h (0 Bft)
06.05.2026 22:26 7,7 °C 8,0 °C 82 % 94 % 1008,9 hPa 0,0 l/m² 0,2 km/h (0 Bft) W-NW 292 ° 0 min 4,8 °C 7,7 °C 0,0 km/h (0 Bft)
06.05.2026 22:24 7,6 °C 8,0 °C 82 % 94 % 1008,9 hPa 0,0 l/m² 0,2 km/h (0 Bft) W-NW 292 ° 0 min 4,7 °C 7,6 °C 0,0 km/h (0 Bft)
06.05.2026 22:22 7,6 °C 8,0 °C 82 % 94 % 1008,9 hPa 0,0 l/m² 0,2 km/h (0 Bft) N-NO 22 ° 0 min 4,7 °C 7,6 °C 0,0 km/h (0 Bft)
06.05.2026 22:20 7,6 °C 8,0 °C 82 % 94 % 1008,9 hPa 0,0 l/m² 0,0 km/h (0 Bft) N-NW 337 ° 0 min 4,7 °C 7,6 °C 0,0 km/h (0 Bft)
06.05.2026 22:18 7,6 °C 8,0 °C 82 % 94 % 1008,9 hPa 0,0 l/m² 0,0 km/h (0 Bft) W-NW 292 ° 0 min 4,7 °C 7,6 °C 0,0 km/h (0 Bft)
06.05.2026 22:16 7,6 °C 8,0 °C 82 % 94 % 1008,9 hPa 0,0 l/m² 0,3 km/h (0 Bft) NO 45 ° 0 min 4,7 °C 7,6 °C 0,0 km/h (0 Bft)
06.05.2026 22:14 7,6 °C 8,0 °C 82 % 94 % 1008,9 hPa 0,0 l/m² 0,3 km/h (0 Bft) W-NW 292 ° 0 min 4,7 °C 7,6 °C 0,0 km/h (0 Bft)
06.05.2026 22:12 7,6 °C 8,0 °C 82 % 94 % 1008,9 hPa 0,0 l/m² 0,5 km/h (0 Bft) N-NO 22 ° 0 min 4,7 °C 7,6 °C 0,0 km/h (0 Bft)
06.05.2026 22:10 7,5 °C 8,0 °C 82 % 94 % 1008,8 hPa 0,0 l/m² 0,5 km/h (0 Bft) NO 45 ° 0 min 4,6 °C 7,5 °C 0,0 km/h (0 Bft)
06.05.2026 22:08 7,5 °C 8,0 °C 82 % 94 % 1008,8 hPa 0,0 l/m² 0,6 km/h (0 Bft) N-NO 22 ° 0 min 4,6 °C 7,5 °C 0,0 km/h (0 Bft)
06.05.2026 22:06 7,6 °C 8,0 °C 82 % 94 % 1008,8 hPa 0,0 l/m² 0,6 km/h (0 Bft) NO 45 ° 0 min 4,7 °C 7,6 °C 3,9 km/h (1 Bft)
06.05.2026 22:04 7,6 °C 8,0 °C 82 % 94 % 1008,8 hPa 0,0 l/m² 0,5 km/h (0 Bft) O-NO 67 ° 0 min 4,7 °C 7,6 °C 0,0 km/h (0 Bft)
06.05.2026 22:00 7,6 °C 8,0 °C 82 % 94 % 1008,8 hPa 0,0 l/m² 0,3 km/h (0 Bft) N-NO 22 ° 0 min 4,7 °C 7,6 °C 0,0 km/h (0 Bft)
06.05.2026 21:58 7,6 °C 8,0 °C 82 % 94 % 1008,8 hPa 0,0 l/m² 0,2 km/h (0 Bft) NW 315 ° 0 min 4,7 °C 7,6 °C 1,8 km/h (1 Bft)
06.05.2026 21:56 7,6 °C 8,0 °C 82 % 94 % 1008,8 hPa 0,0 l/m² 0,3 km/h (0 Bft) W-NW 292 ° 0 min 4,7 °C 7,6 °C 0,0 km/h (0 Bft)
06.05.2026 21:54 7,6 °C 8,0 °C 82 % 94 % 1008,8 hPa 0,0 l/m² 0,2 km/h (0 Bft) NO 45 ° 0 min 4,7 °C 7,6 °C 0,0 km/h (0 Bft)
06.05.2026 21:52 7,6 °C 8,0 °C 82 % 94 % 1008,8 hPa 0,0 l/m² 0,2 km/h (0 Bft) N-NO 22 ° 0 min 4,7 °C 7,6 °C 0,0 km/h (0 Bft)
06.05.2026 21:50 7,6 °C 8,1 °C 82 % 94 % 1008,8 hPa 0,0 l/m² 0,2 km/h (0 Bft) NO 45 ° 0 min 4,7 °C 7,6 °C 0,0 km/h (0 Bft)
06.05.2026 21:48 7,6 °C 8,1 °C 82 % 94 % 1008,8 hPa 0,0 l/m² 0,2 km/h (0 Bft) NO 45 ° 0 min 4,7 °C 7,6 °C 0,0 km/h (0 Bft)
06.05.2026 21:46 7,6 °C 8,1 °C 82 % 93 % 1008,8 hPa 0,0 l/m² 0,2 km/h (0 Bft) O-NO 67 ° 0 min 4,7 °C 7,6 °C 3,9 km/h (1 Bft)
06.05.2026 21:44 7,6 °C 8,1 °C 82 % 94 % 1008,8 hPa 0,0 l/m² 0,0 km/h (0 Bft) NO 45 ° 0 min 4,7 °C 7,6 °C 0,0 km/h (0 Bft)
06.05.2026 21:42 7,7 °C 8,1 °C 82 % 94 % 1008,8 hPa 0,0 l/m² 0,0 km/h (0 Bft) N 360 ° 0 min 4,8 °C 7,7 °C 0,0 km/h (0 Bft)
06.05.2026 21:40 7,7 °C 8,1 °C 82 % 93 % 1008,8 hPa 0,0 l/m² 0,0 km/h (0 Bft) NW 315 ° 0 min 4,8 °C 7,7 °C 0,0 km/h (0 Bft)
06.05.2026 21:38 7,7 °C 8,1 °C 82 % 94 % 1008,8 hPa 0,0 l/m² 0,0 km/h (0 Bft) NW 315 ° 0 min 4,8 °C 7,7 °C 0,0 km/h (0 Bft)
06.05.2026 21:36 7,7 °C 8,1 °C 82 % 93 % 1008,8 hPa 0,0 l/m² 0,0 km/h (0 Bft) NO 45 ° 0 min 4,8 °C 7,7 °C 0,0 km/h (0 Bft)
06.05.2026 21:34 7,7 °C 8,1 °C 82 % 94 % 1008,8 hPa 0,0 l/m² 0,3 km/h (0 Bft) N-NW 337 ° 0 min 4,8 °C 7,7 °C 0,0 km/h (0 Bft)
06.05.2026 21:32 7,7 °C 8,1 °C 82 % 93 % 1008,8 hPa 0,0 l/m² 0,5 km/h (0 Bft) N-NW 337 ° 0 min 4,8 °C 7,7 °C 0,0 km/h (0 Bft)
06.05.2026 21:30 7,7 °C 8,1 °C 82 % 93 % 1008,3 hPa 0,0 l/m² 0,5 km/h (0 Bft) N-NO 22 ° 0 min 4,8 °C 7,7 °C 0,0 km/h (0 Bft)
06.05.2026 21:28 7,7 °C 8,1 °C 82 % 93 % 1008,3 hPa 0,0 l/m² 0,6 km/h (0 Bft) N 360 ° 0 min 4,8 °C 7,7 °C 0,0 km/h (0 Bft)
06.05.2026 21:26 7,7 °C 8,1 °C 82 % 94 % 1008,3 hPa 0,0 l/m² 0,6 km/h (0 Bft) O 90 ° 0 min 4,8 °C 7,7 °C 0,0 km/h (0 Bft)
06.05.2026 21:24 7,7 °C 8,1 °C 82 % 93 % 1008,3 hPa 0,0 l/m² 0,8 km/h (0 Bft) O-NO 67 ° 0 min 4,8 °C 7,7 °C 3,4 km/h (1 Bft)
06.05.2026 21:22 7,7 °C 8,1 °C 82 % 93 % 1008,3 hPa 0,0 l/m² 0,8 km/h (0 Bft) NO 45 ° 0 min 4,8 °C 7,7 °C 0,0 km/h (0 Bft)
06.05.2026 21:20 7,7 °C 8,1 °C 82 % 93 % 1008,3 hPa 0,0 l/m² 0,8 km/h (0 Bft) NW 315 ° 0 min 4,8 °C 7,7 °C 0,0 km/h (0 Bft)
06.05.2026 21:18 7,7 °C 8,1 °C 82 % 93 % 1008,3 hPa 0,0 l/m² 1,3 km/h (1 Bft) SO 135 ° 0 min 4,8 °C 7,7 °C 0,0 km/h (0 Bft)
06.05.2026 21:16 7,7 °C 8,1 °C 82 % 93 % 1008,3 hPa 0,0 l/m² 1,1 km/h (1 Bft) O-NO 67 ° 0 min 4,8 °C 7,7 °C 0,0 km/h (0 Bft)
06.05.2026 21:14 7,7 °C 8,1 °C 82 % 93 % 1008,3 hPa 0,0 l/m² 1,1 km/h (1 Bft) NO 45 ° 0 min 4,8 °C 7,7 °C 4,2 km/h (1 Bft)
06.05.2026 21:12 7,7 °C 8,1 °C 82 % 93 % 1008,3 hPa 0,0 l/m² 0,6 km/h (0 Bft) N-NO 22 ° 0 min 4,8 °C 7,7 °C 0,0 km/h (0 Bft)
06.05.2026 21:10 7,7 °C 8,1 °C 82 % 93 % 1008,1 hPa 0,0 l/m² 0,6 km/h (0 Bft) O 90 ° 0 min 4,8 °C 7,7 °C 1,8 km/h (1 Bft)
06.05.2026 21:08 7,8 °C 8,2 °C 82 % 93 % 1008,1 hPa 0,0 l/m² 0,3 km/h (0 Bft) W 270 ° 0 min 4,9 °C 7,8 °C 1,6 km/h (1 Bft)
06.05.2026 21:06 7,8 °C 8,2 °C 82 % 93 % 1008,1 hPa 0,0 l/m² 0,3 km/h (0 Bft) O-SO 112 ° 0 min 4,9 °C 7,8 °C 0,0 km/h (0 Bft)
06.05.2026 21:04 7,7 °C 8,2 °C 82 % 93 % 1008,1 hPa 0,0 l/m² 0,3 km/h (0 Bft) N 360 ° 0 min 4,8 °C 7,7 °C 0,0 km/h (0 Bft)
06.05.2026 21:02 7,8 °C 8,2 °C 82 % 93 % 1008,1 hPa 0,0 l/m² 0,3 km/h (0 Bft) O-SO 112 ° 0 min 4,9 °C 7,8 °C 0,0 km/h (0 Bft)
06.05.2026 21:00 7,8 °C 8,2 °C 82 % 93 % 1008,1 hPa 0,0 l/m² 0,6 km/h (0 Bft) O 90 ° 0 min 4,9 °C 7,8 °C 0,0 km/h (0 Bft)
06.05.2026 20:58 7,8 °C 8,2 °C 82 % 93 % 1008,1 hPa 0,0 l/m² 0,6 km/h (0 Bft) NW 315 ° 0 min 4,9 °C 7,8 °C 2,9 km/h (1 Bft)
06.05.2026 20:56 7,7 °C 8,2 °C 82 % 93 % 1008,1 hPa 0,0 l/m² 0,8 km/h (0 Bft) S 180 ° 0 min 4,8 °C 7,7 °C 0,0 km/h (0 Bft)
06.05.2026 20:54 7,7 °C 8,2 °C 82 % 93 % 1008,1 hPa 0,0 l/m² 1,1 km/h (1 Bft) NO 45 ° 0 min 4,8 °C 7,7 °C 0,0 km/h (0 Bft)
06.05.2026 20:52 7,8 °C 8,2 °C 82 % 93 % 1008,1 hPa 0,0 l/m² 1,1 km/h (1 Bft) O 90 ° 0 min 4,9 °C 7,8 °C 0,0 km/h (0 Bft)
06.05.2026 20:50 7,8 °C 8,2 °C 82 % 93 % 1007,9 hPa 0,0 l/m² 1,0 km/h (0 Bft) O-NO 67 ° 0 min 4,9 °C 7,8 °C 3,5 km/h (1 Bft)
06.05.2026 20:48 7,8 °C 8,2 °C 82 % 93 % 1007,9 hPa 0,0 l/m² 1,0 km/h (0 Bft) NO 45 ° 0 min 4,9 °C 7,8 °C 0,0 km/h (0 Bft)
06.05.2026 20:46 7,9 °C 8,3 °C 82 % 94 % 1007,9 hPa 0,0 l/m² 1,1 km/h (1 Bft) O-NO 67 ° 0 min 5,0 °C 7,9 °C 0,0 km/h (0 Bft)
06.05.2026 20:44 7,9 °C 8,3 °C 82 % 94 % 1007,9 hPa 0,0 l/m² 1,0 km/h (0 Bft) O-SO 112 ° 0 min 5,0 °C 7,9 °C 4,8 km/h (1 Bft)
06.05.2026 20:42 7,9 °C 8,3 °C 82 % 94 % 1007,9 hPa 0,0 l/m² 1,1 km/h (1 Bft) O 90 ° 0 min 5,0 °C 7,9 °C 0,0 km/h (0 Bft)
06.05.2026 20:40 7,9 °C 8,3 °C 82 % 94 % 1007,9 hPa 0,0 l/m² 1,0 km/h (0 Bft) NO 45 ° 0 min 5,0 °C 7,9 °C 0,0 km/h (0 Bft)
06.05.2026 20:38 7,9 °C 8,3 °C 82 % 94 % 1007,9 hPa 0,0 l/m² 1,3 km/h (1 Bft) N-NO 22 ° 0 min 5,0 °C 7,9 °C 4,0 km/h (1 Bft)
06.05.2026 20:36 7,9 °C 8,3 °C 82 % 94 % 1007,9 hPa 0,0 l/m² 1,6 km/h (1 Bft) NO 45 ° 0 min 5,0 °C 7,9 °C 0,0 km/h (0 Bft)
06.05.2026 20:34 7,9 °C 8,3 °C 82 % 94 % 1007,9 hPa 0,0 l/m² 1,9 km/h (1 Bft) N 360 ° 0 min 5,0 °C 7,9 °C 1,6 km/h (1 Bft)
06.05.2026 20:32 7,9 °C 8,3 °C 82 % 94 % 1007,9 hPa 0,0 l/m² 2,4 km/h (1 Bft) O-NO 67 ° 0 min 5,0 °C 7,9 °C 4,3 km/h (1 Bft)
06.05.2026 20:30 8,0 °C 8,3 °C 82 % 94 % 1007,7 hPa 0,0 l/m² 2,6 km/h (1 Bft) NO 45 ° 0 min 5,1 °C 8,0 °C 0,0 km/h (0 Bft)
06.05.2026 20:28 8,0 °C 8,3 °C 82 % 94 % 1007,7 hPa 0,0 l/m² 2,7 km/h (1 Bft) O-NO 67 ° 0 min 5,1 °C 8,0 °C 5,1 km/h (1 Bft)
06.05.2026 20:26 8,0 °C 8,4 °C 82 % 94 % 1007,7 hPa 0,0 l/m² 2,7 km/h (1 Bft) O-NO 67 ° 0 min 5,1 °C 8,0 °C 4,5 km/h (1 Bft)
06.05.2026 20:24 8,1 °C 8,4 °C 82 % 94 % 1007,7 hPa 0,0 l/m² 2,1 km/h (1 Bft) N-NW 337 ° 0 min 5,2 °C 8,1 °C 3,4 km/h (1 Bft)
06.05.2026 20:22 8,1 °C 8,5 °C 82 % 94 % 1007,7 hPa 0,0 l/m² 1,9 km/h (1 Bft) NO 45 ° 0 min 5,2 °C 8,1 °C 6,1 km/h (2 Bft)
06.05.2026 20:20 8,1 °C 8,5 °C 82 % 94 % 1007,7 hPa 0,0 l/m² 1,6 km/h (1 Bft) O-NO 67 ° 0 min 5,2 °C 8,1 °C 3,2 km/h (1 Bft)
06.05.2026 20:18 8,2 °C 8,5 °C 82 % 94 % 1007,7 hPa 0,0 l/m² 1,6 km/h (1 Bft) O-NO 67 ° 0 min 5,3 °C 8,2 °C 0,0 km/h (0 Bft)
06.05.2026 20:16 8,2 °C 8,5 °C 82 % 94 % 1007,7 hPa 0,0 l/m² 1,9 km/h (1 Bft) NO 45 ° 0 min 5,3 °C 8,2 °C 6,0 km/h (2 Bft)
06.05.2026 20:14 8,2 °C 8,5 °C 82 % 94 % 1007,7 hPa 0,0 l/m² 2,1 km/h (1 Bft) O-NO 67 ° 0 min 5,3 °C 8,2 °C 0,0 km/h (0 Bft)
06.05.2026 20:12 8,2 °C 8,6 °C 82 % 94 % 1007,7 hPa 0,0 l/m² 2,3 km/h (1 Bft) O-NO 67 ° 0 min 5,3 °C 8,2 °C 1,6 km/h (1 Bft)
06.05.2026 20:10 8,2 °C 8,6 °C 82 % 94 % 1007,6 hPa 0,0 l/m² 2,7 km/h (1 Bft) NO 45 ° 0 min 5,3 °C 8,2 °C 0,0 km/h (0 Bft)
06.05.2026 20:08 8,3 °C 8,6 °C 82 % 94 % 1007,6 hPa 0,0 l/m² 3,1 km/h (1 Bft) N-NO 22 ° 0 min 5,4 °C 8,3 °C 4,2 km/h (1 Bft)
06.05.2026 20:06 8,3 °C 8,6 °C 82 % 94 % 1007,6 hPa 0,0 l/m² 3,1 km/h (1 Bft) NW 315 ° 0 min 5,4 °C 8,3 °C 3,5 km/h (1 Bft)
06.05.2026 20:04 8,3 °C 8,7 °C 82 % 94 % 1007,6 hPa 0,0 l/m² 2,7 km/h (1 Bft) O-NO 67 ° 0 min 5,4 °C 8,3 °C 3,1 km/h (1 Bft)
06.05.2026 20:02 8,4 °C 8,7 °C 82 % 94 % 1007,6 hPa 0,0 l/m² 2,3 km/h (1 Bft) N-NO 22 ° 0 min 5,5 °C 8,4 °C 1,6 km/h (1 Bft)
06.05.2026 20:00 8,4 °C 8,7 °C 82 % 94 % 1007,6 hPa 0,0 l/m² 1,9 km/h (1 Bft) O 90 ° 0 min 5,5 °C 8,4 °C 5,3 km/h (1 Bft)
06.05.2026 19:58 8,5 °C 8,7 °C 82 % 94 % 1007,6 hPa 0,0 l/m² 1,4 km/h (1 Bft) N-NO 22 ° 0 min 5,6 °C 8,5 °C 6,3 km/h (2 Bft)
06.05.2026 19:56 8,5 °C 8,8 °C 82 % 94 % 1007,6 hPa 0,0 l/m² 1,0 km/h (0 Bft) NO 45 ° 0 min 5,6 °C 8,5 °C 6,4 km/h (2 Bft)
06.05.2026 19:54 8,5 °C 8,8 °C 82 % 94 % 1007,6 hPa 0,0 l/m² 1,0 km/h (0 Bft) N-NO 22 ° 0 min 5,6 °C 8,5 °C 4,0 km/h (1 Bft)
06.05.2026 19:52 8,5 °C 8,8 °C 82 % 94 % 1007,6 hPa 0,0 l/m² 0,8 km/h (0 Bft) N 360 ° 0 min 5,6 °C 8,5 °C 0,0 km/h (0 Bft)
06.05.2026 19:50 8,5 °C 8,8 °C 82 % 94 % 1007,4 hPa 0,0 l/m² 0,8 km/h (0 Bft) SW 225 ° 0 min 5,6 °C 8,5 °C 0,0 km/h (0 Bft)
06.05.2026 19:48 8,6 °C 8,8 °C 82 % 94 % 1007,4 hPa 0,0 l/m² 0,5 km/h (0 Bft) NW 315 ° 0 min 5,7 °C 8,6 °C 0,0 km/h (0 Bft)
06.05.2026 19:46 8,6 °C 8,8 °C 82 % 94 % 1007,4 hPa 0,0 l/m² 0,8 km/h (0 Bft) W-NW 292 ° 0 min 5,7 °C 8,6 °C 0,0 km/h (0 Bft)
06.05.2026 19:44 8,6 °C 8,8 °C 82 % 94 % 1007,4 hPa 0,0 l/m² 1,0 km/h (0 Bft) O-SO 112 ° 0 min 5,7 °C 8,6 °C 2,9 km/h (1 Bft)
06.05.2026 19:42 8,5 °C 8,8 °C 82 % 94 % 1007,4 hPa 0,0 l/m² 0,8 km/h (0 Bft) S-SO 157 ° 0 min 5,6 °C 8,5 °C 2,6 km/h (1 Bft)
06.05.2026 19:40 8,5 °C 8,8 °C 82 % 94 % 1007,4 hPa 0,0 l/m² 1,1 km/h (1 Bft) NO 45 ° 0 min 5,6 °C 8,5 °C 0,0 km/h (0 Bft)
06.05.2026 19:38 8,5 °C 8,8 °C 82 % 94 % 1007,4 hPa 0,0 l/m² 1,3 km/h (1 Bft) N-NO 22 ° 0 min 5,6 °C 8,5 °C 0,0 km/h (0 Bft)
06.05.2026 19:36 8,5 °C 8,8 °C 82 % 94 % 1007,4 hPa 0,0 l/m² 1,4 km/h (1 Bft) O-NO 67 ° 0 min 5,6 °C 8,5 °C 5,3 km/h (1 Bft)
06.05.2026 19:34 8,6 °C 8,8 °C 82 % 94 % 1007,4 hPa 0,0 l/m² 1,3 km/h (1 Bft) O 90 ° 0 min 5,7 °C 8,6 °C 0,0 km/h (0 Bft)
06.05.2026 19:32 8,6 °C 8,8 °C 82 % 94 % 1007,4 hPa 0,0 l/m² 1,4 km/h (1 Bft) N-NW 337 ° 0 min 5,7 °C 8,6 °C 1,8 km/h (1 Bft)
06.05.2026 19:30 8,6 °C 8,8 °C 82 % 94 % 1007,1 hPa 0,0 l/m² 1,3 km/h (1 Bft) O-NO 67 ° 0 min 5,7 °C 8,6 °C 0,0 km/h (0 Bft)
06.05.2026 19:28 8,6 °C 8,8 °C 82 % 94 % 1007,1 hPa 0,0 l/m² 1,1 km/h (1 Bft) O-NO 67 ° 0 min 5,7 °C 8,6 °C 2,9 km/h (1 Bft)
06.05.2026 19:26 8,6 °C 8,8 °C 82 % 94 % 1007,1 hPa 0,0 l/m² 1,4 km/h (1 Bft) NW 315 ° 0 min 5,7 °C 8,6 °C 2,1 km/h (1 Bft)
06.05.2026 19:24 8,6 °C 8,8 °C 82 % 94 % 1007,1 hPa 0,0 l/m² 1,6 km/h (1 Bft) O-NO 67 ° 0 min 5,7 °C 8,6 °C 0,0 km/h (0 Bft)
06.05.2026 19:22 8,6 °C 8,8 °C 82 % 94 % 1007,1 hPa 0,0 l/m² 1,4 km/h (1 Bft) NO 45 ° 0 min 5,7 °C 8,6 °C 3,1 km/h (1 Bft)
06.05.2026 19:20 8,6 °C 8,9 °C 82 % 94 % 1007,1 hPa 0,0 l/m² 1,4 km/h (1 Bft) N-NO 22 ° 0 min 5,7 °C 8,6 °C 0,0 km/h (0 Bft)
06.05.2026 19:18 8,6 °C 8,8 °C 82 % 94 % 1007,1 hPa 0,0 l/m² 1,8 km/h (1 Bft) O-NO 67 ° 0 min 5,7 °C 8,6 °C 2,4 km/h (1 Bft)
06.05.2026 19:16 8,6 °C 8,8 °C 82 % 94 % 1007,1 hPa 0,0 l/m² 1,4 km/h (1 Bft) N-NW 337 ° 0 min 5,7 °C 8,6 °C 1,8 km/h (1 Bft)
06.05.2026 19:14 8,6 °C 8,9 °C 82 % 94 % 1007,1 hPa 0,0 l/m² 1,8 km/h (1 Bft) N-NO 22 ° 0 min 5,7 °C 8,6 °C 4,2 km/h (1 Bft)
06.05.2026 19:12 8,6 °C 8,9 °C 82 % 94 % 1007,1 hPa 0,0 l/m² 1,6 km/h (1 Bft) NO 45 ° 0 min 5,7 °C 8,6 °C 0,0 km/h (0 Bft)
06.05.2026 19:10 8,6 °C 8,9 °C 82 % 94 % 1007,2 hPa 0,0 l/m² 1,6 km/h (1 Bft) O-NO 67 ° 0 min 5,7 °C 8,6 °C 2,4 km/h (1 Bft)
06.05.2026 19:08 8,6 °C 8,8 °C 82 % 94 % 1007,2 hPa 0,0 l/m² 1,6 km/h (1 Bft) NO 45 ° 0 min 5,7 °C 8,6 °C 4,2 km/h (1 Bft)
06.05.2026 19:06 8,6 °C 8,9 °C 82 % 94 % 1007,2 hPa 0,0 l/m² 2,1 km/h (1 Bft) O-NO 67 ° 0 min 5,7 °C 8,6 °C 0,0 km/h (0 Bft)
06.05.2026 19:04 8,6 °C 8,9 °C 82 % 94 % 1007,2 hPa 0,0 l/m² 1,9 km/h (1 Bft) O 90 ° 0 min 5,7 °C 8,6 °C 4,8 km/h (1 Bft)
06.05.2026 19:02 8,6 °C 8,9 °C 82 % 94 % 1007,2 hPa 0,0 l/m² 1,4 km/h (1 Bft) N-NW 337 ° 0 min 5,7 °C 8,6 °C 0,0 km/h (0 Bft)
06.05.2026 19:00 8,6 °C 8,9 °C 82 % 94 % 1007,2 hPa 0,0 l/m² 1,4 km/h (1 Bft) N-NO 22 ° 0 min 5,7 °C 8,6 °C 0,0 km/h (0 Bft)
06.05.2026 18:58 8,7 °C 8,9 °C 82 % 94 % 1007,2 hPa 0,0 l/m² 1,3 km/h (1 Bft) NO 45 ° 0 min 5,8 °C 8,7 °C 0,0 km/h (0 Bft)
06.05.2026 18:56 8,7 °C 8,9 °C 82 % 94 % 1007,2 hPa 0,0 l/m² 1,0 km/h (0 Bft) NO 45 ° 0 min 5,8 °C 8,7 °C 4,5 km/h (1 Bft)
06.05.2026 18:54 8,7 °C 8,9 °C 82 % 94 % 1007,2 hPa 0,0 l/m² 0,8 km/h (0 Bft) N 360 ° 0 min 5,8 °C 8,7 °C 1,8 km/h (1 Bft)
06.05.2026 18:52 8,7 °C 8,9 °C 82 % 94 % 1007,2 hPa 0,0 l/m² 0,6 km/h (0 Bft) N 360 ° 0 min 5,8 °C 8,7 °C 0,0 km/h (0 Bft)
06.05.2026 18:50 8,7 °C 8,9 °C 82 % 94 % 1007,1 hPa 0,0 l/m² 0,6 km/h (0 Bft) NW 315 ° 0 min 5,8 °C 8,7 °C 0,0 km/h (0 Bft)
06.05.2026 18:48 8,7 °C 8,9 °C 82 % 94 % 1007,1 hPa 0,0 l/m² 0,6 km/h (0 Bft) NO 45 ° 0 min 5,8 °C 8,7 °C 3,2 km/h (1 Bft)
06.05.2026 18:46 8,7 °C 8,9 °C 82 % 94 % 1007,1 hPa 0,0 l/m² 0,3 km/h (0 Bft) O-SO 112 ° 0 min 5,8 °C 8,7 °C 0,0 km/h (0 Bft)
06.05.2026 18:44 8,8 °C 8,9 °C 82 % 94 % 1007,1 hPa 0,0 l/m² 0,3 km/h (0 Bft) N 360 ° 0 min 5,9 °C 8,8 °C 0,0 km/h (0 Bft)
06.05.2026 18:42 8,7 °C 8,9 °C 82 % 94 % 1007,1 hPa 0,0 l/m² 0,6 km/h (0 Bft) N-NW 337 ° 0 min 5,8 °C 8,7 °C 0,0 km/h (0 Bft)
06.05.2026 18:40 8,8 °C 8,9 °C 82 % 94 % 1007,1 hPa 0,0 l/m² 1,0 km/h (0 Bft) O-NO 67 ° 0 min 5,9 °C 8,8 °C 0,0 km/h (0 Bft)
06.05.2026 18:38 8,7 °C 9,0 °C 82 % 94 % 1007,1 hPa 0,0 l/m² 1,1 km/h (1 Bft) N-NW 337 ° 0 min 5,8 °C 8,7 °C 0,0 km/h (0 Bft)
06.05.2026 18:36 8,8 °C 9,0 °C 82 % 94 % 1007,1 hPa 0,0 l/m² 1,6 km/h (1 Bft) NW 315 ° 0 min 5,9 °C 8,8 °C 0,0 km/h (0 Bft)
06.05.2026 18:34 8,8 °C 9,0 °C 82 % 94 % 1007,1 hPa 0,0 l/m² 1,6 km/h (1 Bft) N 360 ° 0 min 5,9 °C 8,8 °C 0,0 km/h (0 Bft)
06.05.2026 18:32 8,7 °C 9,0 °C 82 % 94 % 1007,1 hPa 0,0 l/m² 1,6 km/h (1 Bft) NO 45 ° 0 min 5,8 °C 8,7 °C 4,8 km/h (1 Bft)
06.05.2026 18:30 8,8 °C 9,0 °C 82 % 94 % 1007,1 hPa 0,0 l/m² 1,3 km/h (1 Bft) NO 45 ° 0 min 5,9 °C 8,8 °C 3,2 km/h (1 Bft)
06.05.2026 18:28 8,8 °C 9,0 °C 82 % 94 % 1007,1 hPa 0,0 l/m² 0,8 km/h (0 Bft) N-NW 337 ° 0 min 5,9 °C 8,8 °C 0,0 km/h (0 Bft)
06.05.2026 18:26 8,9 °C 9,1 °C 82 % 94 % 1007,1 hPa 0,0 l/m² 0,8 km/h (0 Bft) NW 315 ° 0 min 6,0 °C 8,9 °C 4,8 km/h (1 Bft)
06.05.2026 18:24 8,9 °C 9,0 °C 82 % 94 % 1007,1 hPa 0,0 l/m² 0,5 km/h (0 Bft) O-NO 67 ° 0 min 6,0 °C 8,9 °C 2,7 km/h (1 Bft)
06.05.2026 18:22 8,9 °C 9,1 °C 82 % 94 % 1007,1 hPa 0,0 l/m² 0,3 km/h (0 Bft) NW 315 ° 0 min 6,0 °C 8,9 °C 0,0 km/h (0 Bft)
06.05.2026 18:20 8,9 °C 9,1 °C 82 % 94 % 1007,1 hPa 0,0 l/m² 0,5 km/h (0 Bft) NW 315 ° 0 min 6,0 °C 8,9 °C 0,0 km/h (0 Bft)
06.05.2026 18:18 8,9 °C 9,0 °C 82 % 94 % 1007,1 hPa 0,0 l/m² 0,6 km/h (0 Bft) N-NO 22 ° 0 min 6,0 °C 8,9 °C 0,0 km/h (0 Bft)
06.05.2026 18:16 8,8 °C 9,0 °C 82 % 94 % 1007,1 hPa 0,0 l/m² 0,6 km/h (0 Bft) NW 315 ° 0 min 5,9 °C 8,8 °C 0,0 km/h (0 Bft)
06.05.2026 18:14 8,8 °C 9,0 °C 82 % 94 % 1007,1 hPa 0,0 l/m² 1,0 km/h (0 Bft) NW 315 ° 0 min 5,9 °C 8,8 °C 0,0 km/h (0 Bft)
06.05.2026 18:12 8,8 °C 9,0 °C 82 % 94 % 1007,1 hPa 0,0 l/m² 1,0 km/h (0 Bft) NW 315 ° 0 min 5,9 °C 8,8 °C 0,0 km/h (0 Bft)
06.05.2026 18:10 8,8 °C 9,0 °C 82 % 94 % 1006,9 hPa 0,0 l/m² 1,3 km/h (1 Bft) O-NO 67 ° 0 min 5,9 °C 8,8 °C 0,0 km/h (0 Bft)
06.05.2026 18:08 8,8 °C 9,0 °C 81 % 94 % 1006,9 hPa 0,0 l/m² 1,4 km/h (1 Bft) W-SW 247 ° 0 min 5,7 °C 8,8 °C 0,0 km/h (0 Bft)
06.05.2026 18:06 8,7 °C 9,0 °C 82 % 94 % 1006,9 hPa 0,0 l/m² 1,3 km/h (1 Bft) O-NO 67 ° 0 min 5,8 °C 8,7 °C 2,3 km/h (1 Bft)
06.05.2026 18:02 8,7 °C 9,0 °C 82 % 94 % 1006,9 hPa 0,0 l/m² 1,0 km/h (0 Bft) N-NO 22 ° 0 min 5,8 °C 8,7 °C 3,9 km/h (1 Bft)
06.05.2026 18:00 8,7 °C 9,0 °C 81 % 94 % 1006,9 hPa 0,0 l/m² 1,0 km/h (0 Bft) O-NO 67 ° 0 min 5,6 °C 8,7 °C 0,0 km/h (0 Bft)
06.05.2026 17:58 8,7 °C 9,0 °C 82 % 94 % 1006,9 hPa 0,0 l/m² 1,0 km/h (0 Bft) O-NO 67 ° 0 min 5,8 °C 8,7 °C 3,5 km/h (1 Bft)
06.05.2026 17:56 8,7 °C 9,0 °C 82 % 94 % 1006,9 hPa 0,0 l/m² 1,0 km/h (0 Bft) O-NO 67 ° 0 min 5,8 °C 8,7 °C 0,0 km/h (0 Bft)
06.05.2026 17:54 8,7 °C 9,0 °C 82 % 94 % 1006,9 hPa 0,0 l/m² 1,3 km/h (1 Bft) O-NO 67 ° 0 min 5,8 °C 8,7 °C 1,9 km/h (1 Bft)
06.05.2026 17:52 8,7 °C 9,0 °C 82 % 94 % 1006,9 hPa 0,0 l/m² 1,4 km/h (1 Bft) NW 315 ° 0 min 5,8 °C 8,7 °C 0,0 km/h (0 Bft)
06.05.2026 17:50 8,7 °C 8,9 °C 82 % 94 % 1006,9 hPa 0,0 l/m² 1,1 km/h (1 Bft) O-NO 67 ° 0 min 5,8 °C 8,7 °C 0,0 km/h (0 Bft)
06.05.2026 17:48 8,7 °C 9,0 °C 82 % 94 % 1006,9 hPa 0,0 l/m² 1,4 km/h (1 Bft) O-NO 67 ° 0 min 5,8 °C 8,7 °C 1,9 km/h (1 Bft)
06.05.2026 17:46 8,7 °C 8,9 °C 82 % 94 % 1006,9 hPa 0,0 l/m² 1,6 km/h (1 Bft) NO 45 ° 0 min 5,8 °C 8,7 °C 1,9 km/h (1 Bft)
06.05.2026 17:44 8,7 °C 8,9 °C 82 % 94 % 1006,9 hPa 0,0 l/m² 1,3 km/h (1 Bft) O-NO 67 ° 0 min 5,8 °C 8,7 °C 2,3 km/h (1 Bft)
06.05.2026 17:42 8,7 °C 8,9 °C 82 % 94 % 1006,9 hPa 0,0 l/m² 1,3 km/h (1 Bft) O-NO 67 ° 0 min 5,8 °C 8,7 °C 3,7 km/h (1 Bft)
06.05.2026 17:40 8,7 °C 8,9 °C 82 % 94 % 1006,9 hPa 0,0 l/m² 1,1 km/h (1 Bft) NO 45 ° 0 min 5,8 °C 8,7 °C 0,0 km/h (0 Bft)
06.05.2026 17:38 8,7 °C 8,9 °C 82 % 94 % 1006,9 hPa 0,0 l/m² 0,8 km/h (0 Bft) O-NO 67 ° 0 min 5,8 °C 8,7 °C 2,7 km/h (1 Bft)
06.05.2026 17:36 8,7 °C 8,9 °C 82 % 94 % 1006,9 hPa 0,0 l/m² 0,3 km/h (0 Bft) N-NO 22 ° 0 min 5,8 °C 8,7 °C 0,0 km/h (0 Bft)
06.05.2026 17:34 8,7 °C 8,9 °C 82 % 94 % 1006,9 hPa 0,0 l/m² 0,6 km/h (0 Bft) N-NW 337 ° 0 min 5,8 °C 8,7 °C 3,5 km/h (1 Bft)
06.05.2026 17:32 8,8 °C 8,9 °C 82 % 94 % 1006,9 hPa 0,0 l/m² 1,3 km/h (1 Bft) N-NO 22 ° 0 min 5,9 °C 8,8 °C 0,0 km/h (0 Bft)
06.05.2026 17:30 8,7 °C 9,0 °C 82 % 94 % 1006,8 hPa 0,0 l/m² 1,4 km/h (1 Bft) NO 45 ° 0 min 5,8 °C 8,7 °C 2,9 km/h (1 Bft)
06.05.2026 17:28 8,7 °C 8,9 °C 82 % 94 % 1006,8 hPa 0,0 l/m² 1,6 km/h (1 Bft) N-NO 22 ° 0 min 5,8 °C 8,7 °C 0,0 km/h (0 Bft)
06.05.2026 17:26 8,7 °C 8,9 °C 82 % 94 % 1006,8 hPa 0,0 l/m² 2,1 km/h (1 Bft) NO 45 ° 0 min 5,8 °C 8,7 °C 2,6 km/h (1 Bft)
06.05.2026 17:24 8,7 °C 8,9 °C 82 % 94 % 1006,8 hPa 0,0 l/m² 1,9 km/h (1 Bft) O-SO 112 ° 0 min 5,8 °C 8,7 °C 2,9 km/h (1 Bft)
06.05.2026 17:22 8,7 °C 8,9 °C 81 % 94 % 1006,8 hPa 0,0 l/m² 1,8 km/h (1 Bft) N-NW 337 ° 0 min 5,6 °C 8,7 °C 6,8 km/h (2 Bft)
06.05.2026 17:20 8,7 °C 8,9 °C 82 % 94 % 1006,8 hPa 0,0 l/m² 1,4 km/h (1 Bft) N-NO 22 ° 0 min 5,8 °C 8,7 °C 2,9 km/h (1 Bft)
06.05.2026 17:18 8,7 °C 8,9 °C 81 % 94 % 1006,8 hPa 0,0 l/m² 1,6 km/h (1 Bft) N-NW 337 ° 0 min 5,6 °C 8,7 °C 0,0 km/h (0 Bft)
06.05.2026 17:16 8,7 °C 9,0 °C 82 % 94 % 1006,8 hPa 0,0 l/m² 1,4 km/h (1 Bft) N-NO 22 ° 0 min 5,8 °C 8,7 °C 1,6 km/h (1 Bft)
06.05.2026 17:14 8,7 °C 9,0 °C 82 % 94 % 1006,8 hPa 0,0 l/m² 1,4 km/h (1 Bft) S 180 ° 0 min 5,8 °C 8,7 °C 3,1 km/h (1 Bft)
06.05.2026 17:12 8,7 °C 9,0 °C 82 % 94 % 1006,8 hPa 0,0 l/m² 1,1 km/h (1 Bft) O-SO 112 ° 0 min 5,8 °C 8,7 °C 3,2 km/h (1 Bft)
06.05.2026 17:10 8,7 °C 8,9 °C 82 % 94 % 1006,7 hPa 0,0 l/m² 1,1 km/h (1 Bft) N-NO 22 ° 0 min 5,8 °C 8,7 °C 3,4 km/h (1 Bft)
06.05.2026 17:08 8,7 °C 9,0 °C 82 % 94 % 1006,7 hPa 0,0 l/m² 0,8 km/h (0 Bft) O-NO 67 ° 0 min 5,8 °C 8,7 °C 2,6 km/h (1 Bft)
06.05.2026 17:06 8,7 °C 8,9 °C 82 % 94 % 1006,7 hPa 0,0 l/m² 0,8 km/h (0 Bft) NO 45 ° 0 min 5,8 °C 8,7 °C 3,2 km/h (1 Bft)
06.05.2026 17:04 8,7 °C 8,9 °C 81 % 94 % 1006,7 hPa 0,0 l/m² 1,1 km/h (1 Bft) W-NW 292 ° 0 min 5,6 °C 8,7 °C 0,0 km/h (0 Bft)
06.05.2026 17:02 8,7 °C 8,9 °C 82 % 94 % 1006,7 hPa 0,0 l/m² 1,6 km/h (1 Bft) O-NO 67 ° 0 min 5,8 °C 8,7 °C 0,0 km/h (0 Bft)
06.05.2026 17:00 8,7 °C 8,9 °C 82 % 94 % 1006,7 hPa 0,0 l/m² 1,9 km/h (1 Bft) SO 135 ° 0 min 5,8 °C 8,7 °C 2,6 km/h (1 Bft)
06.05.2026 16:58 8,6 °C 8,9 °C 82 % 94 % 1006,7 hPa 0,0 l/m² 2,4 km/h (1 Bft) O-NO 67 ° 0 min 5,7 °C 8,6 °C 0,0 km/h (0 Bft)
06.05.2026 16:56 8,6 °C 8,9 °C 82 % 94 % 1006,7 hPa 0,0 l/m² 2,4 km/h (1 Bft) W-NW 292 ° 0 min 5,7 °C 8,6 °C 0,0 km/h (0 Bft)
06.05.2026 16:54 8,6 °C 8,9 °C 82 % 94 % 1006,7 hPa 0,0 l/m² 2,4 km/h (1 Bft) O-NO 67 ° 0 min 5,7 °C 8,6 °C 4,8 km/h (1 Bft)
06.05.2026 16:52 8,7 °C 8,9 °C 82 % 94 % 1006,7 hPa 0,0 l/m² 1,4 km/h (1 Bft) O-NO 67 ° 0 min 5,8 °C 8,7 °C 4,0 km/h (1 Bft)
06.05.2026 16:50 8,7 °C 8,9 °C 82 % 94 % 1006,7 hPa 0,0 l/m² 1,3 km/h (1 Bft) N-NO 22 ° 0 min 5,8 °C 8,7 °C 2,7 km/h (1 Bft)
06.05.2026 16:48 8,8 °C 8,9 °C 82 % 94 % 1006,7 hPa 0,0 l/m² 1,0 km/h (0 Bft) S 180 ° 0 min 5,9 °C 8,8 °C 8,2 km/h (2 Bft)
06.05.2026 16:46 8,8 °C 8,9 °C 82 % 94 % 1006,7 hPa 0,7 l/m² 0,2 km/h (0 Bft) N-NO 22 ° 0 min 5,9 °C 8,8 °C 0,0 km/h (0 Bft)
06.05.2026 16:44 8,8 °C 8,9 °C 82 % 94 % 1006,7 hPa 0,0 l/m² 0,2 km/h (0 Bft) NW 315 ° 0 min 5,9 °C 8,8 °C 0,0 km/h (0 Bft)
06.05.2026 16:42 8,8 °C 8,9 °C 82 % 94 % 1006,7 hPa 0,0 l/m² 0,2 km/h (0 Bft) O-NO 67 ° 0 min 5,9 °C 8,8 °C 2,6 km/h (1 Bft)
06.05.2026 16:40 8,7 °C 8,9 °C 82 % 94 % 1006,7 hPa 0,0 l/m² 0,5 km/h (0 Bft) NW 315 ° 0 min 5,8 °C 8,7 °C 2,3 km/h (1 Bft)
06.05.2026 16:38 8,7 °C 8,9 °C 82 % 94 % 1006,7 hPa 0,0 l/m² 0,3 km/h (0 Bft) O-NO 67 ° 0 min 5,8 °C 8,7 °C 0,0 km/h (0 Bft)
06.05.2026 16:36 8,7 °C 8,9 °C 82 % 94 % 1006,7 hPa 0,0 l/m² 0,3 km/h (0 Bft) N-NW 337 ° 0 min 5,8 °C 8,7 °C 0,0 km/h (0 Bft)
06.05.2026 16:34 8,7 °C 8,8 °C 81 % 94 % 1006,7 hPa 0,0 l/m² 0,6 km/h (0 Bft) N-NO 22 ° 0 min 5,6 °C 8,7 °C 0,0 km/h (0 Bft)
06.05.2026 16:32 8,6 °C 8,8 °C 81 % 94 % 1006,7 hPa 0,0 l/m² 0,6 km/h (0 Bft) N 360 ° 0 min 5,5 °C 8,6 °C 0,0 km/h (0 Bft)
06.05.2026 16:30 8,7 °C 8,8 °C 81 % 94 % 1006,8 hPa 0,0 l/m² 1,0 km/h (0 Bft) NO 45 ° 0 min 5,6 °C 8,7 °C 2,6 km/h (1 Bft)
06.05.2026 16:28 8,6 °C 8,8 °C 81 % 94 % 1006,8 hPa 0,0 l/m² 1,0 km/h (0 Bft) N-NO 22 ° 0 min 5,5 °C 8,6 °C 0,0 km/h (0 Bft)
06.05.2026 16:26 8,6 °C 8,8 °C 81 % 94 % 1006,8 hPa 0,0 l/m² 1,1 km/h (1 Bft) N 360 ° 0 min 5,5 °C 8,6 °C 0,0 km/h (0 Bft)
06.05.2026 16:24 8,6 °C 8,8 °C 81 % 94 % 1006,8 hPa 0,0 l/m² 1,1 km/h (1 Bft) O-NO 67 ° 0 min 5,5 °C 8,6 °C 4,3 km/h (1 Bft)
06.05.2026 16:22 8,6 °C 8,7 °C 81 % 94 % 1006,8 hPa 0,0 l/m² 1,1 km/h (1 Bft) NO 45 ° 0 min 5,5 °C 8,6 °C 2,4 km/h (1 Bft)
06.05.2026 16:20 8,6 °C 8,7 °C 82 % 94 % 1006,8 hPa 0,0 l/m² 1,3 km/h (1 Bft) NO 45 ° 0 min 5,7 °C 8,6 °C 2,1 km/h (1 Bft)
06.05.2026 16:18 8,6 °C 8,7 °C 82 % 94 % 1006,8 hPa 0,0 l/m² 1,0 km/h (0 Bft) W-SW 247 ° 0 min 5,7 °C 8,6 °C 0,0 km/h (0 Bft)
06.05.2026 16:16 8,5 °C 8,7 °C 82 % 94 % 1006,8 hPa 0,0 l/m² 1,1 km/h (1 Bft) O-NO 67 ° 0 min 5,6 °C 8,5 °C 0,0 km/h (0 Bft)
06.05.2026 16:14 8,5 °C 8,7 °C 82 % 94 % 1006,8 hPa 0,0 l/m² 1,4 km/h (1 Bft) O-NO 67 ° 0 min 5,6 °C 8,5 °C 1,9 km/h (1 Bft)
06.05.2026 16:12 8,5 °C 8,7 °C 81 % 94 % 1006,8 hPa 0,0 l/m² 1,4 km/h (1 Bft) N-NO 22 ° 0 min 5,4 °C 8,5 °C 2,6 km/h (1 Bft)
06.05.2026 16:10 8,5 °C 8,7 °C 81 % 94 % 1006,6 hPa 0,0 l/m² 1,6 km/h (1 Bft) N-NO 22 ° 0 min 5,4 °C 8,5 °C 4,0 km/h (1 Bft)
06.05.2026 16:08 8,5 °C 8,7 °C 82 % 94 % 1006,6 hPa 0,0 l/m² 1,6 km/h (1 Bft) W-NW 292 ° 0 min 5,6 °C 8,5 °C 0,0 km/h (0 Bft)
06.05.2026 16:06 8,6 °C 8,7 °C 82 % 94 % 1006,6 hPa 0,0 l/m² 1,8 km/h (1 Bft) N 360 ° 0 min 5,7 °C 8,6 °C 0,0 km/h (0 Bft)
06.05.2026 16:04 8,5 °C 8,7 °C 81 % 94 % 1006,6 hPa 0,7 l/m² 1,9 km/h (1 Bft) NO 45 ° 0 min 5,4 °C 8,5 °C 4,5 km/h (1 Bft)
06.05.2026 16:02 8,5 °C 8,7 °C 82 % 94 % 1006,6 hPa 0,0 l/m² 1,4 km/h (1 Bft) O-SO 112 ° 0 min 5,6 °C 8,5 °C 0,0 km/h (0 Bft)
06.05.2026 16:00 8,6 °C 8,7 °C 82 % 94 % 1006,6 hPa 0,0 l/m² 1,4 km/h (1 Bft) NO 45 ° 0 min 5,7 °C 8,6 °C 2,4 km/h (1 Bft)
06.05.2026 15:58 8,5 °C 8,7 °C 81 % 94 % 1006,6 hPa 0,0 l/m² 1,3 km/h (1 Bft) O-NO 67 ° 0 min 5,4 °C 8,5 °C 3,9 km/h (1 Bft)
06.05.2026 15:56 8,6 °C 8,7 °C 81 % 94 % 1006,6 hPa 0,0 l/m² 1,0 km/h (0 Bft) N-NO 22 ° 0 min 5,5 °C 8,6 °C 1,8 km/h (1 Bft)
06.05.2026 15:54 8,5 °C 8,7 °C 82 % 94 % 1006,6 hPa 0,0 l/m² 1,3 km/h (1 Bft) W 270 ° 0 min 5,6 °C 8,5 °C 4,7 km/h (1 Bft)
06.05.2026 15:52 8,6 °C 8,7 °C 81 % 94 % 1006,6 hPa 0,0 l/m² 1,3 km/h (1 Bft) O-NO 67 ° 0 min 5,5 °C 8,6 °C 0,0 km/h (0 Bft)
06.05.2026 15:50 8,6 °C 8,7 °C 81 % 94 % 1006,6 hPa 0,0 l/m² 1,6 km/h (1 Bft) O-NO 67 ° 0 min 5,5 °C 8,6 °C 4,8 km/h (1 Bft)
06.05.2026 15:48 8,6 °C 8,7 °C 81 % 94 % 1006,6 hPa 0,0 l/m² 1,6 km/h (1 Bft) O-NO 67 ° 0 min 5,5 °C 8,6 °C 0,0 km/h (0 Bft)
06.05.2026 15:46 8,6 °C 8,7 °C 81 % 94 % 1006,6 hPa 0,0 l/m² 1,8 km/h (1 Bft) NW 315 ° 0 min 5,5 °C 8,6 °C 2,7 km/h (1 Bft)
06.05.2026 15:44 8,5 °C 8,7 °C 81 % 94 % 1006,6 hPa 0,0 l/m² 1,8 km/h (1 Bft) NW 315 ° 0 min 5,4 °C 8,5 °C 0,0 km/h (0 Bft)
06.05.2026 15:42 8,5 °C 8,7 °C 81 % 94 % 1006,6 hPa 0,0 l/m² 1,8 km/h (1 Bft) NO 45 ° 0 min 5,4 °C 8,5 °C 4,7 km/h (1 Bft)
06.05.2026 15:40 8,6 °C 8,8 °C 82 % 94 % 1006,6 hPa 0,0 l/m² 1,4 km/h (1 Bft) W-NW 292 ° 0 min 5,7 °C 8,6 °C 1,9 km/h (1 Bft)
06.05.2026 15:38 8,6 °C 8,8 °C 81 % 94 % 1006,6 hPa 0,0 l/m² 1,3 km/h (1 Bft) NO 45 ° 0 min 5,5 °C 8,6 °C 3,7 km/h (1 Bft)
06.05.2026 15:36 8,6 °C 8,8 °C 81 % 94 % 1006,6 hPa 0,0 l/m² 1,1 km/h (1 Bft) N-NO 22 ° 0 min 5,5 °C 8,6 °C 1,6 km/h (1 Bft)
06.05.2026 15:34 8,7 °C 8,8 °C 81 % 94 % 1006,6 hPa 0,0 l/m² 0,6 km/h (0 Bft) NW 315 ° 0 min 5,6 °C 8,7 °C 3,9 km/h (1 Bft)
06.05.2026 15:32 8,7 °C 8,9 °C 81 % 94 % 1006,6 hPa 0,0 l/m² 0,3 km/h (0 Bft) O-NO 67 ° 0 min 5,6 °C 8,7 °C 2,7 km/h (1 Bft)
06.05.2026 15:30 8,7 °C 8,9 °C 81 % 94 % 1006,5 hPa 0,0 l/m² 0,3 km/h (0 Bft) O-NO 67 ° 0 min 5,6 °C 8,7 °C 3,1 km/h (1 Bft)
06.05.2026 15:28 8,7 °C 8,9 °C 81 % 94 % 1006,5 hPa 0,0 l/m² 0,2 km/h (0 Bft) O-NO 67 ° 0 min 5,6 °C 8,7 °C 1,8 km/h (1 Bft)
06.05.2026 15:26 8,7 °C 8,9 °C 81 % 94 % 1006,5 hPa 0,0 l/m² 0,2 km/h (0 Bft) O-NO 67 ° 0 min 5,6 °C 8,7 °C 1,6 km/h (1 Bft)
06.05.2026 15:24 8,7 °C 8,8 °C 81 % 94 % 1006,5 hPa 0,0 l/m² 0,2 km/h (0 Bft) NW 315 ° 0 min 5,6 °C 8,7 °C 0,0 km/h (0 Bft)
06.05.2026 15:22 8,7 °C 8,8 °C 81 % 94 % 1006,5 hPa 0,0 l/m² 0,2 km/h (0 Bft) W 270 ° 0 min 5,6 °C 8,7 °C 0,0 km/h (0 Bft)
06.05.2026 15:20 8,7 °C 8,8 °C 81 % 94 % 1006,5 hPa 0,0 l/m² 0,2 km/h (0 Bft) W 270 ° 0 min 5,6 °C 8,7 °C 2,4 km/h (1 Bft)
06.05.2026 15:18 8,7 °C 8,8 °C 81 % 94 % 1006,5 hPa 0,0 l/m² 0,2 km/h (0 Bft) W-NW 292 ° 0 min 5,6 °C 8,7 °C 0,0 km/h (0 Bft)
06.05.2026 15:16 8,7 °C 8,8 °C 81 % 94 % 1006,5 hPa 0,0 l/m² 0,3 km/h (0 Bft) NW 315 ° 0 min 5,6 °C 8,7 °C 0,0 km/h (0 Bft)
06.05.2026 15:14 8,7 °C 8,8 °C 81 % 94 % 1006,5 hPa 0,0 l/m² 0,8 km/h (0 Bft) NO 45 ° 0 min 5,6 °C 8,7 °C 0,0 km/h (0 Bft)
06.05.2026 15:12 8,6 °C 8,8 °C 81 % 94 % 1006,5 hPa 0,0 l/m² 1,1 km/h (1 Bft) S 180 ° 0 min 5,5 °C 8,6 °C 0,0 km/h (0 Bft)
06.05.2026 15:10 8,6 °C 8,8 °C 81 % 94 % 1006,4 hPa 0,0 l/m² 1,0 km/h (0 Bft) NW 315 ° 0 min 5,5 °C 8,6 °C 1,8 km/h (1 Bft)
06.05.2026 15:08 8,6 °C 8,8 °C 81 % 94 % 1006,4 hPa 0,0 l/m² 1,0 km/h (0 Bft) W 270 ° 0 min 5,5 °C 8,6 °C 0,0 km/h (0 Bft)
06.05.2026 15:06 8,6 °C 8,8 °C 81 % 94 % 1006,4 hPa 0,0 l/m² 1,1 km/h (1 Bft) N-NW 337 ° 0 min 5,5 °C 8,6 °C 1,9 km/h (1 Bft)
06.05.2026 15:04 8,7 °C 8,9 °C 81 % 94 % 1006,4 hPa 0,7 l/m² 0,6 km/h (0 Bft) O-NO 67 ° 0 min 5,6 °C 8,7 °C 3,4 km/h (1 Bft)
06.05.2026 15:02 8,6 °C 8,9 °C 81 % 94 % 1006,4 hPa 0,0 l/m² 0,5 km/h (0 Bft) N-NO 22 ° 0 min 5,5 °C 8,6 °C 1,6 km/h (1 Bft)
06.05.2026 15:00 8,7 °C 8,8 °C 81 % 94 % 1006,4 hPa 0,0 l/m² 0,5 km/h (0 Bft) NO 45 ° 0 min 5,6 °C 8,7 °C 0,0 km/h (0 Bft)
06.05.2026 14:58 8,6 °C 8,8 °C 81 % 94 % 1006,4 hPa 0,0 l/m² 0,6 km/h (0 Bft) N-NO 22 ° 0 min 5,5 °C 8,6 °C 0,0 km/h (0 Bft)
06.05.2026 14:56 8,6 °C 8,8 °C 81 % 94 % 1006,4 hPa 0,0 l/m² 0,8 km/h (0 Bft) NW 315 ° 0 min 5,5 °C 8,6 °C 0,0 km/h (0 Bft)
06.05.2026 14:54 8,5 °C 8,8 °C 81 % 94 % 1006,4 hPa 0,0 l/m² 1,3 km/h (1 Bft) NO 45 ° 0 min 5,4 °C 8,5 °C 0,0 km/h (0 Bft)
06.05.2026 14:52 8,5 °C 8,8 °C 81 % 94 % 1006,4 hPa 0,0 l/m² 1,3 km/h (1 Bft) O-NO 67 ° 0 min 5,4 °C 8,5 °C 0,0 km/h (0 Bft)
06.05.2026 14:50 8,6 °C 8,8 °C 81 % 94 % 1006,4 hPa 0,0 l/m² 1,3 km/h (1 Bft) SO 135 ° 0 min 5,5 °C 8,6 °C 5,0 km/h (1 Bft)
06.05.2026 14:48 8,6 °C 8,8 °C 81 % 94 % 1006,4 hPa 0,0 l/m² 1,1 km/h (1 Bft) N 360 ° 0 min 5,5 °C 8,6 °C 4,0 km/h (1 Bft)
06.05.2026 14:46 8,6 °C 8,9 °C 81 % 94 % 1006,4 hPa 0,0 l/m² 1,0 km/h (0 Bft) O-NO 67 ° 0 min 5,5 °C 8,6 °C 0,0 km/h (0 Bft)
06.05.2026 14:44 8,6 °C 8,9 °C 81 % 94 % 1006,4 hPa 0,0 l/m² 0,8 km/h (0 Bft) NO 45 ° 0 min 5,5 °C 8,6 °C 5,8 km/h (2 Bft)
06.05.2026 14:42 8,7 °C 8,9 °C 81 % 94 % 1006,4 hPa 0,0 l/m² 0,3 km/h (0 Bft) N-NW 337 ° 0 min 5,6 °C 8,7 °C 2,6 km/h (1 Bft)
06.05.2026 14:40 8,6 °C 8,9 °C 81 % 94 % 1006,4 hPa 0,0 l/m² 0,6 km/h (0 Bft) NO 45 ° 0 min 5,5 °C 8,6 °C 2,1 km/h (1 Bft)
06.05.2026 14:38 8,6 °C 8,8 °C 81 % 94 % 1006,4 hPa 0,0 l/m² 0,6 km/h (0 Bft) N-NO 22 ° 0 min 5,5 °C 8,6 °C 3,2 km/h (1 Bft)
06.05.2026 14:36 8,6 °C 8,8 °C 81 % 94 % 1006,4 hPa 0,0 l/m² 0,6 km/h (0 Bft) N-NO 22 ° 0 min 5,5 °C 8,6 °C 1,6 km/h (1 Bft)
06.05.2026 14:34 8,6 °C 8,8 °C 81 % 94 % 1006,4 hPa 0,0 l/m² 0,5 km/h (0 Bft) N-NO 22 ° 0 min 5,5 °C 8,6 °C 0,0 km/h (0 Bft)
06.05.2026 14:32 8,6 °C 8,8 °C 81 % 94 % 1006,4 hPa 0,0 l/m² 0,5 km/h (0 Bft) O-SO 112 ° 0 min 5,5 °C 8,6 °C 0,0 km/h (0 Bft)
06.05.2026 14:30 8,6 °C 8,8 °C 81 % 94 % 1006,2 hPa 0,7 l/m² 0,3 km/h (0 Bft) O-NO 67 ° 0 min 5,5 °C 8,6 °C 3,5 km/h (1 Bft)
06.05.2026 14:28 8,6 °C 8,8 °C 81 % 94 % 1006,2 hPa 0,0 l/m² 0,6 km/h (0 Bft) NW 315 ° 0 min 5,5 °C 8,6 °C 0,0 km/h (0 Bft)
06.05.2026 14:26 8,5 °C 8,8 °C 81 % 94 % 1006,2 hPa 0,0 l/m² 0,6 km/h (0 Bft) N 360 ° 0 min 5,4 °C 8,5 °C 0,0 km/h (0 Bft)
06.05.2026 14:24 8,5 °C 8,8 °C 81 % 94 % 1006,2 hPa 0,0 l/m² 0,8 km/h (0 Bft) W-NW 292 ° 0 min 5,4 °C 8,5 °C 0,0 km/h (0 Bft)
06.05.2026 14:22 8,5 °C 8,8 °C 81 % 94 % 1006,2 hPa 0,0 l/m² 1,0 km/h (0 Bft) N-NO 22 ° 0 min 5,4 °C 8,5 °C 0,0 km/h (0 Bft)
06.05.2026 14:20 8,4 °C 8,7 °C 81 % 94 % 1006,2 hPa 0,0 l/m² 0,8 km/h (0 Bft) NO 45 ° 0 min 5,3 °C 8,4 °C 2,4 km/h (1 Bft)
06.05.2026 14:18 8,4 °C 8,7 °C 81 % 94 % 1006,2 hPa 0,0 l/m² 0,6 km/h (0 Bft) W-SW 247 ° 0 min 5,3 °C 8,4 °C 0,0 km/h (0 Bft)
06.05.2026 14:16 8,4 °C 8,8 °C 81 % 94 % 1006,2 hPa 0,0 l/m² 0,6 km/h (0 Bft) O-NO 67 ° 0 min 5,3 °C 8,4 °C 0,0 km/h (0 Bft)
06.05.2026 14:14 8,4 °C 8,8 °C 81 % 94 % 1006,2 hPa 0,0 l/m² 0,6 km/h (0 Bft) W-NW 292 ° 0 min 5,3 °C 8,4 °C 0,0 km/h (0 Bft)
06.05.2026 14:12 8,5 °C 8,8 °C 81 % 94 % 1006,2 hPa 0,0 l/m² 0,5 km/h (0 Bft) N-NW 337 ° 0 min 5,4 °C 8,5 °C 0,0 km/h (0 Bft)
06.05.2026 14:10 8,5 °C 8,8 °C 81 % 94 % 1006,0 hPa 0,0 l/m² 0,8 km/h (0 Bft) O-SO 112 ° 0 min 5,4 °C 8,5 °C 2,6 km/h (1 Bft)
06.05.2026 14:08 8,5 °C 8,8 °C 81 % 94 % 1006,0 hPa 0,7 l/m² 0,8 km/h (0 Bft) SO 135 ° 0 min 5,4 °C 8,5 °C 3,2 km/h (1 Bft)
06.05.2026 14:06 8,5 °C 8,8 °C 81 % 94 % 1006,0 hPa 0,0 l/m² 0,8 km/h (0 Bft) N-NW 337 ° 0 min 5,4 °C 8,5 °C 0,0 km/h (0 Bft)
06.05.2026 14:04 8,5 °C 8,8 °C 81 % 94 % 1006,0 hPa 0,0 l/m² 1,0 km/h (0 Bft) O 90 ° 0 min 5,4 °C 8,5 °C 0,0 km/h (0 Bft)
06.05.2026 14:02 8,4 °C 8,8 °C 81 % 94 % 1006,0 hPa 0,0 l/m² 1,1 km/h (1 Bft) NW 315 ° 0 min 5,3 °C 8,4 °C 0,0 km/h (0 Bft)
06.05.2026 14:00 8,5 °C 8,8 °C 81 % 94 % 1006,0 hPa 0,0 l/m² 1,1 km/h (1 Bft) O-NO 67 ° 0 min 5,4 °C 8,5 °C 4,0 km/h (1 Bft)
06.05.2026 13:58 8,5 °C 8,8 °C 81 % 94 % 1006,0 hPa 0,0 l/m² 1,3 km/h (1 Bft) S-SO 157 ° 0 min 5,4 °C 8,5 °C 1,8 km/h (1 Bft)
06.05.2026 13:56 8,4 °C 8,8 °C 81 % 94 % 1006,0 hPa 0,0 l/m² 1,4 km/h (1 Bft) N-NO 22 ° 0 min 5,3 °C 8,4 °C 2,7 km/h (1 Bft)
06.05.2026 13:54 8,4 °C 8,8 °C 81 % 94 % 1006,0 hPa 0,0 l/m² 1,4 km/h (1 Bft) N-NO 22 ° 0 min 5,3 °C 8,4 °C 0,0 km/h (0 Bft)
06.05.2026 13:52 8,4 °C 8,8 °C 81 % 94 % 1006,0 hPa 0,0 l/m² 1,1 km/h (1 Bft) NO 45 ° 0 min 5,3 °C 8,4 °C 0,0 km/h (0 Bft)
06.05.2026 13:50 8,4 °C 8,8 °C 81 % 94 % 1006,0 hPa 0,0 l/m² 1,0 km/h (0 Bft) O-NO 67 ° 0 min 5,3 °C 8,4 °C 0,0 km/h (0 Bft)
06.05.2026 13:48 8,4 °C 8,8 °C 81 % 94 % 1006,0 hPa 0,0 l/m² 1,0 km/h (0 Bft) NO 45 ° 0 min 5,3 °C 8,4 °C 8,7 km/h (2 Bft)
06.05.2026 13:46 8,4 °C 8,7 °C 81 % 94 % 1006,0 hPa 0,0 l/m² 1,1 km/h (1 Bft) O-NO 67 ° 0 min 5,3 °C 8,4 °C 0,0 km/h (0 Bft)
06.05.2026 13:44 8,5 °C 8,8 °C 81 % 94 % 1006,0 hPa 0,0 l/m² 1,3 km/h (1 Bft) O-SO 112 ° 0 min 5,4 °C 8,5 °C 2,9 km/h (1 Bft)
06.05.2026 13:42 8,5 °C 8,8 °C 81 % 94 % 1006,0 hPa 0,0 l/m² 1,6 km/h (1 Bft) O 90 ° 0 min 5,4 °C 8,5 °C 1,6 km/h (1 Bft)
06.05.2026 13:40 8,5 °C 8,8 °C 81 % 94 % 1006,0 hPa 0,7 l/m² 1,6 km/h (1 Bft) NO 45 ° 0 min 5,4 °C 8,5 °C 0,0 km/h (0 Bft)
06.05.2026 13:38 8,5 °C 8,8 °C 81 % 94 % 1006,0 hPa 0,0 l/m² 1,3 km/h (1 Bft) N-NW 337 ° 0 min 5,4 °C 8,5 °C 0,0 km/h (0 Bft)
06.05.2026 13:36 8,5 °C 8,8 °C 81 % 94 % 1006,0 hPa 0,0 l/m² 1,4 km/h (1 Bft) N-NO 22 ° 0 min 5,4 °C 8,5 °C 4,0 km/h (1 Bft)
06.05.2026 13:34 8,6 °C 8,8 °C 81 % 94 % 1006,0 hPa 0,0 l/m² 1,0 km/h (0 Bft) O-SO 112 ° 0 min 5,5 °C 8,6 °C 2,6 km/h (1 Bft)
06.05.2026 13:32 8,5 °C 8,8 °C 81 % 94 % 1006,0 hPa 0,0 l/m² 0,8 km/h (0 Bft) O-NO 67 ° 0 min 5,4 °C 8,5 °C 4,2 km/h (1 Bft)
06.05.2026 13:30 8,6 °C 8,8 °C 81 % 94 % 1005,8 hPa 0,0 l/m² 0,6 km/h (0 Bft) O-NO 67 ° 0 min 5,5 °C 8,6 °C 0,0 km/h (0 Bft)
06.05.2026 13:28 8,6 °C 8,8 °C 81 % 94 % 1005,8 hPa 0,0 l/m² 0,8 km/h (0 Bft) N 360 ° 0 min 5,5 °C 8,6 °C 0,0 km/h (0 Bft)
06.05.2026 13:26 8,6 °C 8,8 °C 81 % 94 % 1005,8 hPa 0,0 l/m² 0,6 km/h (0 Bft) N-NO 22 ° 0 min 5,5 °C 8,6 °C 4,5 km/h (1 Bft)
06.05.2026 13:24 8,7 °C 8,8 °C 81 % 94 % 1005,8 hPa 0,0 l/m² 0,5 km/h (0 Bft) O 90 ° 0 min 5,6 °C 8,7 °C 1,8 km/h (1 Bft)
06.05.2026 13:22 8,7 °C 8,8 °C 81 % 94 % 1005,8 hPa 0,0 l/m² 0,2 km/h (0 Bft) N-NW 337 ° 0 min 5,6 °C 8,7 °C 1,6 km/h (1 Bft)
06.05.2026 13:20 8,7 °C 8,8 °C 81 % 94 % 1005,8 hPa 0,0 l/m² 0,2 km/h (0 Bft) O-SO 112 ° 0 min 5,6 °C 8,7 °C 0,0 km/h (0 Bft)
06.05.2026 13:18 8,7 °C 8,8 °C 81 % 94 % 1005,8 hPa 0,0 l/m² 0,3 km/h (0 Bft) W-NW 292 ° 0 min 5,6 °C 8,7 °C 3,1 km/h (1 Bft)
06.05.2026 13:16 8,7 °C 8,8 °C 81 % 94 % 1005,8 hPa 0,0 l/m² 0,2 km/h (0 Bft) NO 45 ° 0 min 5,6 °C 8,7 °C 0,0 km/h (0 Bft)
06.05.2026 13:14 8,7 °C 8,9 °C 81 % 94 % 1005,8 hPa 0,0 l/m² 0,3 km/h (0 Bft) O-NO 67 ° 0 min 5,6 °C 8,7 °C 0,0 km/h (0 Bft)
06.05.2026 13:12 8,7 °C 8,9 °C 81 % 94 % 1005,8 hPa 0,0 l/m² 0,5 km/h (0 Bft) N-NW 337 ° 0 min 5,6 °C 8,7 °C 0,0 km/h (0 Bft)
06.05.2026 13:10 8,7 °C 8,9 °C 81 % 94 % 1005,8 hPa 0,0 l/m² 0,5 km/h (0 Bft) N-NO 22 ° 0 min 5,6 °C 8,7 °C 0,0 km/h (0 Bft)
06.05.2026 13:08 8,7 °C 8,9 °C 81 % 94 % 1005,8 hPa 0,0 l/m² 0,5 km/h (0 Bft) W-NW 292 ° 0 min 5,6 °C 8,7 °C 4,5 km/h (1 Bft)
06.05.2026 13:06 8,7 °C 8,9 °C 81 % 94 % 1005,8 hPa 0,0 l/m² 0,3 km/h (0 Bft) W 270 ° 0 min 5,6 °C 8,7 °C 0,0 km/h (0 Bft)
06.05.2026 13:04 8,7 °C 8,9 °C 81 % 94 % 1005,8 hPa 0,0 l/m² 0,2 km/h (0 Bft) NO 45 ° 0 min 5,6 °C 8,7 °C 0,0 km/h (0 Bft)
06.05.2026 13:02 8,7 °C 8,9 °C 81 % 94 % 1005,8 hPa 0,0 l/m² 0,2 km/h (0 Bft) N-NO 22 ° 0 min 5,6 °C 8,7 °C 1,6 km/h (1 Bft)
06.05.2026 13:00 8,7 °C 8,9 °C 81 % 94 % 1005,8 hPa 0,0 l/m² 0,3 km/h (0 Bft) W-NW 292 ° 0 min 5,6 °C 8,7 °C 0,0 km/h (0 Bft)
06.05.2026 12:58 8,7 °C 8,9 °C 81 % 94 % 1005,8 hPa 0,0 l/m² 0,5 km/h (0 Bft) NW 315 ° 0 min 5,6 °C 8,7 °C 0,0 km/h (0 Bft)
06.05.2026 12:56 8,7 °C 9,0 °C 81 % 94 % 1005,8 hPa 0,0 l/m² 0,5 km/h (0 Bft) O-SO 112 ° 0 min 5,6 °C 8,7 °C 1,9 km/h (1 Bft)
06.05.2026 12:54 8,7 °C 9,0 °C 81 % 94 % 1005,8 hPa 0,0 l/m² 0,6 km/h (0 Bft) S 180 ° 0 min 5,6 °C 8,7 °C 0,0 km/h (0 Bft)
06.05.2026 12:52 8,7 °C 9,0 °C 81 % 94 % 1005,8 hPa 0,7 l/m² 0,6 km/h (0 Bft) N-NO 22 ° 0 min 5,6 °C 8,7 °C 1,6 km/h (1 Bft)
06.05.2026 12:50 8,7 °C 9,0 °C 81 % 94 % 1005,7 hPa 0,0 l/m² 0,5 km/h (0 Bft) N-NO 22 ° 0 min 5,6 °C 8,7 °C 2,7 km/h (1 Bft)
06.05.2026 12:48 8,8 °C 9,0 °C 81 % 94 % 1005,7 hPa 0,0 l/m² 0,3 km/h (0 Bft) N-NO 22 ° 0 min 5,7 °C 8,8 °C 3,1 km/h (1 Bft)
06.05.2026 12:46 8,8 °C 9,0 °C 81 % 94 % 1005,7 hPa 0,0 l/m² 0,5 km/h (0 Bft) W-SW 247 ° 0 min 5,7 °C 8,8 °C 0,0 km/h (0 Bft)
06.05.2026 12:44 8,7 °C 9,0 °C 81 % 94 % 1005,7 hPa 0,0 l/m² 1,0 km/h (0 Bft) O-SO 112 ° 0 min 5,6 °C 8,7 °C 0,0 km/h (0 Bft)
06.05.2026 12:42 8,7 °C 9,0 °C 81 % 94 % 1005,7 hPa 0,0 l/m² 1,3 km/h (1 Bft) W 270 ° 0 min 5,6 °C 8,7 °C 0,0 km/h (0 Bft)
06.05.2026 12:40 8,7 °C 9,0 °C 81 % 94 % 1005,7 hPa 0,0 l/m² 1,6 km/h (1 Bft) W 270 ° 0 min 5,6 °C 8,7 °C 0,0 km/h (0 Bft)
06.05.2026 12:38 8,7 °C 9,0 °C 81 % 94 % 1005,7 hPa 0,0 l/m² 2,1 km/h (1 Bft) N-NO 22 ° 0 min 5,6 °C 8,7 °C 0,0 km/h (0 Bft)
06.05.2026 12:36 8,7 °C 9,1 °C 81 % 94 % 1005,7 hPa 0,0 l/m² 2,1 km/h (1 Bft) N-NW 337 ° 0 min 5,6 °C 8,7 °C 1,9 km/h (1 Bft)
06.05.2026 12:34 8,7 °C 9,0 °C 81 % 94 % 1005,7 hPa 0,0 l/m² 1,8 km/h (1 Bft) O-NO 67 ° 0 min 5,6 °C 8,7 °C 2,9 km/h (1 Bft)
06.05.2026 12:32 8,7 °C 9,1 °C 81 % 94 % 1005,7 hPa 0,0 l/m² 1,8 km/h (1 Bft) N 360 ° 0 min 5,6 °C 8,7 °C 3,7 km/h (1 Bft)
06.05.2026 12:30 8,7 °C 9,1 °C 81 % 94 % 1005,4 hPa 0,0 l/m² 1,6 km/h (1 Bft) NO 45 ° 0 min 5,6 °C 8,7 °C 5,6 km/h (2 Bft)
06.05.2026 12:28 8,8 °C 9,1 °C 81 % 94 % 1005,4 hPa 0,0 l/m² 1,1 km/h (1 Bft) N-NW 337 ° 0 min 5,7 °C 8,8 °C 3,4 km/h (1 Bft)
06.05.2026 12:26 8,8 °C 9,1 °C 81 % 94 % 1005,4 hPa 0,0 l/m² 1,1 km/h (1 Bft) NW 315 ° 0 min 5,7 °C 8,8 °C 3,5 km/h (1 Bft)
06.05.2026 12:24 8,8 °C 9,1 °C 81 % 94 % 1005,4 hPa 0,0 l/m² 1,0 km/h (0 Bft) O-NO 67 ° 0 min 5,7 °C 8,8 °C 2,7 km/h (1 Bft)
06.05.2026 12:22 8,8 °C 9,1 °C 81 % 94 % 1005,4 hPa 0,0 l/m² 0,8 km/h (0 Bft) O 90 ° 0 min 5,7 °C 8,8 °C 3,2 km/h (1 Bft)
06.05.2026 12:20 8,8 °C 9,1 °C 81 % 94 % 1005,4 hPa 0,0 l/m² 1,1 km/h (1 Bft) O-NO 67 ° 0 min 5,7 °C 8,8 °C 3,5 km/h (1 Bft)
06.05.2026 12:18 8,7 °C 9,1 °C 81 % 93 % 1005,4 hPa 0,0 l/m² 1,1 km/h (1 Bft) O-NO 67 ° 0 min 5,6 °C 8,7 °C 3,7 km/h (1 Bft)
06.05.2026 12:16 8,7 °C 9,1 °C 81 % 94 % 1005,4 hPa 0,0 l/m² 1,4 km/h (1 Bft) N-NO 22 ° 0 min 5,6 °C 8,7 °C 2,7 km/h (1 Bft)
06.05.2026 12:14 8,7 °C 9,1 °C 81 % 93 % 1005,4 hPa 0,0 l/m² 1,1 km/h (1 Bft) N-NW 337 ° 0 min 5,6 °C 8,7 °C 0,0 km/h (0 Bft)
06.05.2026 12:12 8,7 °C 9,1 °C 81 % 93 % 1005,4 hPa 0,0 l/m² 1,1 km/h (1 Bft) N-NO 22 ° 0 min 5,6 °C 8,7 °C 0,0 km/h (0 Bft)
06.05.2026 12:10 8,7 °C 9,1 °C 81 % 94 % 1005,6 hPa 0,7 l/m² 1,1 km/h (1 Bft) NO 45 ° 0 min 5,6 °C 8,7 °C 4,3 km/h (1 Bft)
06.05.2026 12:08 8,8 °C 9,1 °C 81 % 93 % 1005,6 hPa 0,0 l/m² 1,0 km/h (0 Bft) N-NW 337 ° 0 min 5,7 °C 8,8 °C 2,3 km/h (1 Bft)
06.05.2026 12:06 8,8 °C 9,1 °C 81 % 93 % 1005,6 hPa 0,0 l/m² 0,8 km/h (0 Bft) O-NO 67 ° 0 min 5,7 °C 8,8 °C 6,1 km/h (2 Bft)
06.05.2026 12:02 8,8 °C 9,1 °C 81 % 93 % 1005,6 hPa 0,0 l/m² 0,5 km/h (0 Bft) O-NO 67 ° 0 min 5,7 °C 8,8 °C 0,0 km/h (0 Bft)
06.05.2026 12:00 8,8 °C 9,1 °C 81 % 93 % 1005,6 hPa 0,0 l/m² 0,5 km/h (0 Bft) NO 45 ° 0 min 5,7 °C 8,8 °C 2,4 km/h (1 Bft)
06.05.2026 11:58 8,9 °C 9,1 °C 81 % 93 % 1005,6 hPa 0,0 l/m² 0,3 km/h (0 Bft) N-NO 22 ° 0 min 5,8 °C 8,9 °C 2,7 km/h (1 Bft)
06.05.2026 11:56 8,9 °C 9,1 °C 81 % 93 % 1005,6 hPa 0,0 l/m² 0,3 km/h (0 Bft) NO 45 ° 0 min 5,8 °C 8,9 °C 0,0 km/h (0 Bft)
06.05.2026 11:54 8,9 °C 9,1 °C 81 % 93 % 1005,6 hPa 0,0 l/m² 0,2 km/h (0 Bft) NO 45 ° 0 min 5,8 °C 8,9 °C 0,0 km/h (0 Bft)
06.05.2026 11:52 9,0 °C 9,1 °C 81 % 93 % 1005,6 hPa 0,0 l/m² 0,5 km/h (0 Bft) N-NO 22 ° 0 min 5,9 °C 9,0 °C 2,9 km/h (1 Bft)
06.05.2026 11:50 9,0 °C 9,1 °C 81 % 93 % 1005,1 hPa 0,0 l/m² 0,3 km/h (0 Bft) O-NO 67 ° 0 min 5,9 °C 9,0 °C 0,0 km/h (0 Bft)
06.05.2026 11:48 9,0 °C 9,2 °C 81 % 93 % 1005,1 hPa 0,0 l/m² 0,5 km/h (0 Bft) N 360 ° 0 min 5,9 °C 9,0 °C 0,0 km/h (0 Bft)
06.05.2026 11:46 9,1 °C 9,2 °C 81 % 93 % 1005,1 hPa 0,0 l/m² 0,6 km/h (0 Bft) O-NO 67 ° 0 min 6,0 °C 9,1 °C 0,0 km/h (0 Bft)
06.05.2026 11:44 9,1 °C 9,2 °C 81 % 93 % 1005,1 hPa 0,0 l/m² 0,6 km/h (0 Bft) O-NO 67 ° 0 min 6,0 °C 9,1 °C 0,0 km/h (0 Bft)
06.05.2026 11:42 9,1 °C 9,2 °C 81 % 93 % 1005,1 hPa 0,0 l/m² 0,5 km/h (0 Bft) N-NO 22 ° 0 min 6,0 °C 9,1 °C 4,2 km/h (1 Bft)
06.05.2026 11:40 9,1 °C 9,3 °C 81 % 93 % 1005,1 hPa 0,0 l/m² 0,3 km/h (0 Bft) O-NO 67 ° 0 min 6,0 °C 9,1 °C 3,2 km/h (1 Bft)
06.05.2026 11:38 9,1 °C 9,3 °C 81 % 93 % 1005,1 hPa 0,0 l/m² 0,3 km/h (0 Bft) O-NO 67 ° 0 min 6,0 °C 9,1 °C 4,3 km/h (1 Bft)
06.05.2026 11:36 9,1 °C 9,3 °C 81 % 93 % 1005,1 hPa 0,0 l/m² 0,3 km/h (0 Bft) N 360 ° 0 min 6,0 °C 9,1 °C 0,0 km/h (0 Bft)
06.05.2026 11:34 9,1 °C 9,3 °C 81 % 93 % 1005,1 hPa 0,0 l/m² 0,5 km/h (0 Bft) N-NO 22 ° 0 min 6,0 °C 9,1 °C 1,6 km/h (1 Bft)
06.05.2026 11:32 9,1 °C 9,3 °C 81 % 93 % 1005,1 hPa 0,0 l/m² 0,8 km/h (0 Bft) O-NO 67 ° 0 min 6,0 °C 9,1 °C 0,0 km/h (0 Bft)
06.05.2026 11:30 9,1 °C 9,3 °C 81 % 93 % 1004,9 hPa 0,7 l/m² 1,0 km/h (0 Bft) NW 315 ° 0 min 6,0 °C 9,1 °C 0,0 km/h (0 Bft)
06.05.2026 11:28 9,2 °C 9,3 °C 81 % 93 % 1004,9 hPa 0,0 l/m² 1,1 km/h (1 Bft) O-SO 112 ° 0 min 6,1 °C 9,2 °C 0,0 km/h (0 Bft)
06.05.2026 11:26 9,2 °C 9,3 °C 81 % 93 % 1004,9 hPa 0,0 l/m² 1,1 km/h (1 Bft) W-SW 247 ° 0 min 6,1 °C 9,2 °C 2,6 km/h (1 Bft)
06.05.2026 11:24 9,2 °C 9,3 °C 81 % 93 % 1004,9 hPa 0,0 l/m² 1,0 km/h (0 Bft) W-SW 247 ° 0 min 6,1 °C 9,2 °C 5,1 km/h (1 Bft)
06.05.2026 11:22 9,2 °C 9,3 °C 81 % 93 % 1004,9 hPa 0,0 l/m² 0,8 km/h (0 Bft) N-NW 337 ° 0 min 6,1 °C 9,2 °C 3,7 km/h (1 Bft)
06.05.2026 11:20 9,2 °C 9,4 °C 81 % 93 % 1004,9 hPa 0,0 l/m² 1,0 km/h (0 Bft) O-SO 112 ° 0 min 6,1 °C 9,2 °C 0,0 km/h (0 Bft)
06.05.2026 11:18 9,1 °C 9,3 °C 81 % 93 % 1004,9 hPa 0,0 l/m² 1,4 km/h (1 Bft) N 360 ° 0 min 6,0 °C 9,1 °C 5,1 km/h (1 Bft)
06.05.2026 11:16 9,1 °C 9,3 °C 81 % 93 % 1004,9 hPa 0,0 l/m² 1,1 km/h (1 Bft) O 90 ° 0 min 6,0 °C 9,1 °C 3,7 km/h (1 Bft)
06.05.2026 11:14 9,1 °C 9,4 °C 81 % 93 % 1004,9 hPa 0,0 l/m² 1,1 km/h (1 Bft) N-NO 22 ° 0 min 6,0 °C 9,1 °C 0,0 km/h (0 Bft)
06.05.2026 11:12 9,1 °C 9,4 °C 81 % 93 % 1004,9 hPa 0,0 l/m² 1,6 km/h (1 Bft) N-NO 22 ° 0 min 6,0 °C 9,1 °C 0,0 km/h (0 Bft)
06.05.2026 11:10 9,2 °C 9,4 °C 81 % 93 % 1004,6 hPa 0,0 l/m² 1,3 km/h (1 Bft) O-NO 67 ° 0 min 6,1 °C 9,2 °C 6,1 km/h (2 Bft)
06.05.2026 11:08 9,2 °C 9,4 °C 81 % 93 % 1004,6 hPa 0,0 l/m² 1,0 km/h (0 Bft) O-NO 67 ° 0 min 6,1 °C 9,2 °C 2,6 km/h (1 Bft)
06.05.2026 11:06 9,2 °C 9,5 °C 81 % 93 % 1004,6 hPa 0,0 l/m² 1,0 km/h (0 Bft) SO 135 ° 0 min 6,1 °C 9,2 °C 1,9 km/h (1 Bft)
06.05.2026 11:04 9,2 °C 9,5 °C 81 % 93 % 1004,6 hPa 0,0 l/m² 1,1 km/h (1 Bft) N-NO 22 ° 0 min 6,1 °C 9,2 °C 0,0 km/h (0 Bft)
06.05.2026 11:02 9,3 °C 9,5 °C 81 % 93 % 1004,6 hPa 0,0 l/m² 1,1 km/h (1 Bft) O-NO 67 ° 0 min 6,2 °C 9,3 °C 4,5 km/h (1 Bft)
06.05.2026 11:00 9,2 °C 9,5 °C 81 % 93 % 1004,6 hPa 0,0 l/m² 1,0 km/h (0 Bft) W 270 ° 0 min 6,1 °C 9,2 °C 2,7 km/h (1 Bft)
_ Min-Zeit 04:58 04:50 11:00 10:00 11:00 - 21:36 - - - 04:58 04:58 11:04
Minimum _ 7,4 °C 7,6 °C 81 % 92 % 1004,6 hPa - 0,0 km/h (0 Bft) - - - 4,5 °C 7,4 °C 0,0 km/h (0 Bft)
_ Max-Zeit 10:02 09:54 09:30 12:10 09:32 11:30 20:06 - - 08:26 09:58 10:02 13:48
Maximum _ 12,9 °C 10,3 °C 84 % 94 % 1011,9 hPa 0,7 l/m² 3,1 km/h
NW (1 Bft)
- - 2 min 10,2 °C 12,9 °C 8,7 km/h
NO (2 Bft)
Durchschnitt _ 8,5 °C 8,5 °C 82 % 94 % 1008,2 hPa #6,2 l/m² 0,7 km/h (0 Bft) NW - #1:28 h 5,5 °C 8,5 °C 1,3 km/h (1 Bft)